GFSFLT2_con_sbcape_057.txt.gz
CAPE
420 463 259 53 13 3 38 302 796 846 875 840 743 601 407 336 232 87 0 0 0 0 0 0 1 0 0 0 0 0 0 0
384 145 117 10 3 13 8 317 671 560 677 950 566 509 357 236 61 0 0 0 0 0 0 11 0 0 0 0 0 0 0 0
155 49 8 5 4 0 45 322 644 727 819 722 333 159 21 0 0 0 0 0 0 0 0 5 5 0 0 0 0 0 0 0
1 3 2 0 0 0 38 224 346 545 638 409 206 33 0 0 0 0 5 5 8 1 0 0 0 0 0 0 0 0 0 0
3 0 0 0 0 0 33 202 184 64 37 92 42 16 4 0 0 0 0 1 0 0 0 0 0 0 0 0 0 0 0 0
5 0 0 0 0 0 2 34 17 26 68 50 1 0 0 5 4 0 0 0 0 0 0 0 0 0 0 0 0 0 0 0
2 8 7 0 0 0 0 0 0 4 4 9 10 0 0 6 1 0 0 0 0 0 0 0 0 0 0 0 0 0 0 0
1 1 5 5 8 5 0 0 0 0 0 3 0 0 9 4 0 0 0 0 0 0 0 0 0 0 0 0 0 0 0 0
0 0 0 0 0 0 0 0 4 0 0 4 0 0 0 0 0 0 0 0 0 0 0 0 0 0 0 0 0 0 0 0
1 1 0 0 0 0 0 0 21 21 25 31 15 1 1 2 11 0 0 0 0 0 0 0 0 0 0 0 0 0 0 0
2 0 0 0 0 0 0 1 35 33 61 67 51 21 22 35 39 45 2 0 0 0 0 0 0 0 0 0 0 0 0 0
3 0 0 0 0 0 0 4 18 16 9 40 79 103 119 100 61 57 27 0 0 0 0 0 0 0 0 0 0 0 0 0
0 0 0 0 0 0 1 0 0 0 20 20 55 80 48 64 80 36 9 0 0 0 0 0 0 0 0 0 0 0 0 0
0 0 0 0 0 0 0 0 0 0 0 0 20 14 24 18 53 45 10 0 0 0 0 0 0 0 0 0 0 0 0 0
0 0 0 0 0 0 0 0 0 4 2 6 6 1 0 0 2 0 0 0 0 0 0 0 0 0 0 0 0 0 0 0
0 0 0 0 0 0 0 0 0 0 0 0 6 0 0 0 0 0 0 0 0 0 0 0 0 0 0 0 0 0 0 0
0 0 0 0 0 0 0 0 0 0 0 0 0 0 0 0 0 0 0 0 0 0 0 0 0 0 0 0 0 0 0 0
0 0 0 0 0 0 0 0 0 0 0 0 0 0 0 0 3 4 0 0 0 0 0 0 0 0 0 0 0 0 0 0
0 0 0 0 0 0 0 0 0 0 0 0 0 0 0 0 5 8 5 3 0 0 0 0 0 0 0 0 0 0 0 0
0 0 0 0 0 0 0 0 0 0 0 0 0 0 0 0 0 0 2 0 0 0 0 0 0 0 0 0 0 0 0 0

GFSFLT2_con_sbcape_060.txt.gz
CAPE
757 504 636 359 215 46 67 153 522 680 585 648 546 414 343 362 217 28 7 96 258 76 0 0 0 0 0 0 0 0 0 0
322 193 0 0 0 0 0 4 396 623 684 580 438 364 256 112 0 0 0 0 49 42 0 0 0 0 0 0 0 0 0 0
201 19 1 0 0 0 0 5 137 409 560 401 272 130 38 0 0 0 0 0 2 12 33 1 0 0 0 0 0 0 0 0
103 7 5 6 8 1 0 0 0 111 425 283 145 16 0 0 0 0 0 0 4 27 43 12 0 0 0 0 0 0 0 0
2 2 1 0 1 3 4 17 38 101 374 236 60 19 2 0 0 0 0 0 0 0 0 0 0 0 0 0 0 0 0 0
1 20 15 1 3 0 20 0 28 72 199 154 69 0 0 0 0 0 0 0 0 0 0 0 0 0 0 0 0 0 0 0
2 1 0 0 0 0 9 14 26 56 135 183 74 12 0 0 0 0 0 0 0 0 0 0 0 0 0 0 0 0 0 0
7 5 0 0 0 2 0 0 0 12 105 110 37 0 0 0 0 0 0 0 0 0 0 0 0 0 0 0 0 0 0 0
2 8 1 0 0 0 0 0 0 0 30 26 0 0 0 0 0 0 0 0 0 0 0 0 0 0 0 0 0 0 0 0
2 3 7 0 5 0 0 0 4 1 2 6 0 3 2 0 0 0 0 0 0 0 0 0 0 0 0 0 0 0 0 0
3 1 1 0 1 0 0 3 0 24 19 8 17 11 2 1 0 0 0 0 0 0 0 0 0 0 0 0 0 0 0 0
2 0 0 0 0 0 0 0 12 21 23 26 45 29 21 13 14 3 0 0 0 0 0 0 0 0 0 0 0 0 0 0
1 1 0 0 0 0 0 0 0 2 31 60 64 75 79 55 63 49 31 12 0 0 0 0 0 0 0 0 0 0 0 0
1 0 0 0 0 0 0 0 0 6 13 21 43 55 60 92 113 74 27 12 0 0 0 0 0 0 0 0 0 0 0 0
0 0 0 0 0 0 0 0 0 0 1 2 4 8 5 36 56 35 36 0 1 0 0 0 0 0 0 0 0 0 0 0
0 0 0 0 0 0 0 0 0 0 0 3 9 14 0 8 11 4 2 0 0 0 0 0 0 0 0 0 0 0 0 0
0 0 0 0 0 0 0 0 0 0 0 5 6 0 0 0 0 0 0 0 1 0 0 0 0 0 0 0 0 0 0 0
0 0 0 0 0 0 0 0 0 0 0 0 0 0 0 0 0 0 0 0 0 0 0 0 0 0 0 0 0 0 0 0
0 0 0 0 0 0 0 0 0 0 0 0 0 0 0 0 0 0 0 0 0 0 0 0 0 0 0 0 0 0 0 0
0 0 0 0 0 0 0 0 0 0 0 0 0 0 0 0 0 0 0 0 0 0 0 0 0 0 0 0 0 0 0 0

GFSFLT2_con_sbcape_066.txt.gz
CAPE
1413 993 874 801 663 1030 1005 1156 1156 1046 1089 1094 1007 819 686 656 623 621 531 191 49 6 5 0 0 0 0 0 0 0 0 1
1359 1691 1235 1048 1165 611 604 875 836 853 984 857 582 507 374 250 251 529 420 181 87 19 0 0 0 0 0 0 0 0 0 2
1352 1084 1089 905 731 749 674 598 515 601 730 446 318 486 266 140 148 390 261 126 88 16 0 0 0 0 0 0 0 0 2 2
1321 1095 1051 886 588 687 558 288 288 240 334 259 346 403 222 26 195 252 195 103 90 27 0 0 0 0 0 0 0 0 1 4
697 546 266 372 326 16 98 105 86 109 228 224 381 384 78 110 333 358 181 52 3 0 0 0 0 0 0 0 0 0 0 0
70 153 32 4 13 21 1 0 15 38 82 202 263 186 183 167 184 187 127 63 34 1 0 0 0 0 0 0 0 0 0 0
22 8 2 0 2 7 7 2 1 32 48 100 278 201 168 83 192 214 179 207 148 70 25 0 0 0 0 0 0 0 0 4
10 17 16 6 2 7 13 21 13 70 69 123 249 213 163 81 76 67 66 158 163 81 40 3 0 0 0 0 0 0 0 3
14 6 3 5 3 4 4 21 31 22 57 170 306 174 145 175 78 62 54 63 59 37 33 8 0 0 0 0 0 0 0 0
5 5 2 5 7 9 44 10 10 44 75 137 177 164 160 163 108 87 58 50 25 23 24 18 7 1 0 0 0 0 0 0
8 6 2 8 16 42 48 17 15 64 101 143 103 163 179 131 105 71 128 96 27 18 31 13 2 0 0 0 0 0 0 0
7 9 3 14 39 20 30 44 42 55 57 136 115 85 107 94 80 110 121 173 133 98 108 74 39 10 0 0 0 0 0 0
10 5 6 19 19 10 17 36 80 34 18 53 138 103 146 196 103 126 153 167 235 200 200 155 97 76 1 0 0 0 0 0
6 7 15 10 18 5 15 48 34 50 26 43 75 121 81 119 167 144 150 165 208 266 251 210 219 122 199 250 226 57 1 0
11 7 5 12 12 19 3 2 6 53 66 68 68 100 33 79 166 162 202 215 220 237 244 278 282 211 189 258 213 204 214 68
14 8 5 6 15 2 2 0 0 31 41 43 42 108 62 69 200 246 273 330 291 293 286 267 322 303 195 181 278 248 163 127
20 14 8 4 4 0 0 0 0 41 49 72 31 67 129 139 249 273 311 409 316 490 321 372 373 479 248 215 152 195 187 211
16 17 11 7 2 5 0 17 23 43 25 54 26 26 93 93 123 249 277 254 301 316 356 503 333 430 409 430 279 234 184 164
8 15 19 17 4 5 0 5 0 0 0 13 21 22 24 35 124 203 180 166 195 218 323 306 360 365 396 439 331 220 23 6
10 10 10 13 17 15 9 0 0 0 0 3 0 14 42 27 107 149 137 194 202 239 370 239 332 411 436 429 327 110 0 20

GFSFLT2_con_sbcape_069.txt.gz
CAPE
1850 1752 1168 521 31 5 0 31 1180 1154 1197 1285 1106 834 754 840 741 377 148 94 51 9 5 0 0 0 0 0 0 6 4 1
1984 1781 1052 500 246 3 125 221 745 971 1147 1053 831 819 835 812 644 276 126 90 25 4 3 0 0 0 0 0 0 0 1 0
1693 1576 1517 990 680 665 428 450 261 782 961 646 560 901 766 634 339 173 88 27 7 2 0 0 0 0 0 0 0 6 4 0
1305 1341 1390 1189 945 679 652 321 599 651 730 429 415 548 682 557 332 127 46 0 0 0 0 0 0 0 0 0 6 13 6 0
831 898 1177 1291 1215 1165 681 593 324 222 246 378 373 302 156 511 455 98 0 0 0 0 0 0 0 0 0 7 6 20 10 2
580 643 640 241 797 402 348 488 132 30 39 80 81 111 145 338 317 37 0 0 0 0 0 18 0 0 0 0 3 19 7 2
63 2 165 98 30 129 284 55 44 15 13 2 24 75 150 310 247 90 21 73 0 0 21 6 1 0 0 0 5 21 10 3
13 8 2 7 163 9 20 14 2 12 9 33 44 73 179 259 236 279 167 164 88 39 44 5 0 0 0 0 2 4 18 15
21 7 7 3 4 6 2 3 2 18 5 54 72 121 236 208 328 285 272 191 287 176 67 3 0 0 0 0 0 0 1 25
24 10 13 3 7 13 5 12 10 3 0 38 46 187 304 325 262 193 244 283 251 151 55 10 0 0 0 0 0 0 0 0
11 15 15 6 5 22 58 15 31 28 0 33 74 189 241 282 237 260 391 274 264 189 116 61 29 13 0 0 0 0 0 0
6 9 8 4 27 33 6 9 9 28 27 55 136 149 201 187 207 302 253 163 125 189 200 122 100 56 1 0 0 0 0 0
7 4 2 6 19 35 6 12 8 21 14 57 135 169 171 208 166 248 268 259 214 308 280 342 186 145 19 0 0 0 0 0
10 4 7 5 18 17 17 3 4 0 7 49 134 184 152 143 144 167 208 273 386 389 341 302 246 274 123 184 134 28 3 0
14 11 8 9 12 16 22 22 32 26 29 19 72 128 120 121 182 218 215 316 410 443 478 436 251 349 276 367 189 173 259 153
16 11 13 6 13 16 12 25 33 3 1 15 23 121 92 117 173 181 275 338 401 439 437 464 238 218 261 235 376 358 249 104
15 11 7 15 15 13 4 0 27 6 4 16 40 62 125 78 122 154 144 353 389 498 374 372 351 178 157 446 341 218 298 191
21 13 12 11 15 19 3 0 13 0 33 40 21 41 155 144 96 102 160 237 366 292 198 191 224 377 224 363 311 178 168 263
16 20 12 9 8 11 18 10 0 0 8 56 27 12 61 140 81 39 27 64 125 224 117 188 239 364 375 302 242 359 364 406
51 13 11 20 12 7 15 10 13 2 18 60 25 8 2 61 66 38 102 97 162 167 244 132 286 199 347 312 441 398 449 520

GFSFLT2_con_sbcape_075.txt.gz
CAPE
1244 1296 1106 882 676 436 173 159 41 3 0 475 779 900 755 736 635 572 488 317 132 52 14 1 0 0 0 0 0 0 0 0
1582 942 493 179 11 35 87 66 4 45 23 64 354 558 635 593 456 388 322 218 60 27 3 0 0 0 0 0 0 0 0 0
1067 1131 204 12 0 0 47 51 41 0 13 0 294 340 277 197 207 231 117 36 34 5 0 0 0 0 0 0 0 0 0 0
926 799 524 4 12 5 0 0 1 11 3 1 213 178 79 111 70 54 20 7 5 0 0 0 0 0 0 0 0 0 0 0
369 330 141 159 40 3 1 0 0 2 3 1 118 93 48 5 2 2 2 0 0 0 0 0 0 0 0 0 0 0 0 0
186 217 174 68 59 5 4 0 1 6 8 57 120 27 2 0 0 0 0 0 0 0 0 0 0 0 0 0 0 0 0 0
0 0 80 145 92 65 106 10 3 0 77 68 71 33 0 0 0 0 0 0 0 0 0 0 0 0 0 0 0 0 0 0
0 0 0 9 0 40 158 103 48 27 17 5 41 9 0 0 0 0 0 0 0 0 0 0 0 0 0 0 0 0 0 0
0 0 0 0 0 7 13 15 15 1 5 0 2 0 0 0 0 0 0 0 0 0 0 0 0 0 0 0 0 0 0 0
0 0 1 0 1 2 1 2 2 0 0 0 0 0 0 0 0 0 0 0 0 0 0 0 0 0 0 0 0 0 0 0
0 0 3 1 1 4 2 1 0 0 0 0 0 0 0 0 0 0 12 6 16 2 3 0 0 0 0 0 0 0 0 0
0 0 2 1 1 1 1 1 1 0 0 0 0 0 0 0 16 37 57 36 66 19 9 0 0 0 0 0 0 0 0 0
0 2 4 3 2 1 1 0 2 2 0 0 0 0 0 0 20 29 63 85 37 7 1 0 0 0 0 0 0 0 0 0
4 1 5 5 1 0 1 1 1 1 2 0 0 0 0 0 1 4 45 39 46 10 27 29 6 0 0 0 0 0 0 0
0 0 2 5 2 1 2 2 1 0 0 0 0 0 0 0 0 3 11 26 18 17 43 34 39 8 0 1 0 0 0 0
3 1 0 0 0 2 1 3 2 0 0 0 0 1 0 0 0 0 6 5 8 56 52 44 38 12 19 37 23 10 17 0
0 2 3 0 0 0 1 1 1 1 0 0 0 0 0 0 0 0 17 47 81 120 104 99 54 36 24 2 1 10 18 0
2 2 1 1 3 0 0 0 0 0 0 0 0 0 0 0 0 2 1 22 77 85 119 107 77 14 30 31 12 8 19 8
4 0 0 0 1 0 0 0 0 0 0 0 0 0 0 0 4 9 20 12 38 51 89 85 57 37 16 16 28 20 34 36
1 4 4 0 2 3 1 0 0 0 0 0 0 0 0 5 0 18 15 22 72 59 45 48 42 28 31 11 8 8 17 20

GFSFLT2_con_sbcape_078.txt.gz
CAPE
1138 1428 1856 1899 1704 1258 73 29 11 7 1 0 34 393 503 1169 1117 922 636 555 517 257 41 6 6 0 0 0 0 0 0 0
1069 1062 745 719 829 525 44 201 131 54 43 2 2 254 410 676 766 568 433 369 282 122 2 8 0 0 0 0 0 0 0 0
1128 749 449 15 13 95 163 208 92 46 11 0 69 109 211 388 357 355 302 199 149 47 0 0 0 0 0 0 0 0 0 0
544 515 179 0 0 3 17 43 41 3 0 0 87 151 194 227 235 188 115 106 67 3 0 0 0 0 0 0 0 0 0 0
578 384 84 0 1 1 0 1 1 0 1 0 123 149 126 175 56 24 1 4 1 0 0 0 0 0 0 0 0 0 0 0
95 63 77 1 1 0 1 1 2 3 4 0 1 103 54 7 1 1 0 0 0 0 0 0 0 0 0 0 0 0 0 0
3 8 33 67 1 3 12 1 1 1 2 2 1 22 2 2 0 0 0 0 0 0 0 0 0 0 0 0 0 0 0 0
0 0 1 8 38 2 14 2 1 0 96 2 40 3 0 0 0 0 0 0 0 0 0 0 0 0 0 0 0 0 0 0
0 0 0 0 0 51 75 17 15 27 115 72 8 0 0 0 0 0 0 0 0 0 0 0 0 0 0 0 0 0 0 0
0 0 0 0 0 8 57 49 13 32 58 59 5 0 0 0 0 0 0 0 0 0 0 0 0 0 0 0 0 0 0 0
0 0 0 1 0 1 1 32 4 11 28 7 0 0 0 0 0 0 0 0 0 0 0 0 0 0 0 0 0 0 0 0
0 0 1 1 1 2 1 9 4 0 0 6 0 0 0 0 0 0 0 0 0 0 0 0 0 0 0 0 0 0 0 0
0 0 4 4 4 1 1 1 1 1 0 0 0 0 0 0 0 0 0 0 0 0 0 0 0 0 0 0 0 0 0 0
0 0 2 0 0 0 0 0 1 0 0 0 0 0 0 0 0 0 14 0 0 0 0 0 0 0 0 0 0 0 0 0
0 0 0 2 0 0 1 0 0 2 1 0 0 0 0 0 0 7 19 12 1 0 0 1 0 0 0 0 0 0 0 0
0 0 1 0 0 1 0 0 0 0 0 0 0 0 0 0 1 11 9 21 6 1 0 0 0 0 0 2 1 0 1 0
0 0 1 0 1 0 1 0 0 0 0 0 0 0 0 0 0 3 10 12 19 24 25 8 0 0 0 8 3 0 0 0
0 0 1 2 0 0 0 0 1 0 0 0 0 0 0 0 0 0 2 6 1 8 24 4 27 30 9 4 1 12 0 0
1 5 3 0 1 0 0 0 0 0 0 0 0 0 0 0 0 0 0 2 0 1 25 36 25 23 16 5 13 15 5 3
0 6 7 4 4 0 0 0 0 0 0 0 0 0 0 0 0 0 0 0 0 11 26 52 45 26 14 6 11 9 10 14

GFSFLT2_con_sbcape_081.txt.gz
CAPE
1280 1579 1742 1730 1827 1428 1030 282 50 18 5 1 190 202 292 597 1027 911 1034 886 607 503 261 38 126 18 0 0 0 0 0 0
882 1325 1730 1731 1319 375 403 149 53 32 26 10 0 34 236 433 415 596 702 667 339 219 20 50 45 1 0 0 0 0 0 0
703 885 1002 857 695 342 306 259 119 90 27 21 16 22 107 185 190 399 532 400 234 77 3 12 6 0 0 0 0 0 0 0
579 399 255 111 391 387 109 141 138 49 11 4 1 26 85 132 154 250 282 237 125 13 0 0 0 0 0 0 0 0 0 0
280 156 31 2 63 78 23 30 18 5 0 0 44 69 86 100 146 161 146 141 5 0 0 0 0 0 0 0 0 0 0 0
169 135 79 1 1 1 0 0 2 10 0 0 63 47 111 123 111 64 27 0 0 0 0 0 0 0 0 0 0 0 0 0
26 0 44 4 1 1 1 0 1 16 0 0 57 5 88 131 49 0 0 0 0 0 0 0 0 0 0 0 0 0 0 0
0 0 1 39 2 1 1 1 0 1 1 0 22 83 137 57 0 0 0 0 0 0 0 0 0 0 0 0 0 0 0 0
0 0 1 54 3 1 2 1 2 3 1 0 0 125 58 16 0 0 0 0 0 0 0 0 0 0 0 0 0 0 0 0
0 0 1 0 34 2 3 1 3 3 59 25 4 46 8 0 0 0 0 0 0 0 0 0 0 0 0 0 0 0 0 0
0 0 1 1 1 8 33 1 7 25 93 24 3 1 0 0 0 0 0 0 0 0 0 0 0 0 0 0 0 0 0 0
0 0 0 1 2 3 13 14 6 31 70 31 1 0 0 0 0 0 0 0 0 0 0 0 0 0 0 0 0 0 0 0
0 0 0 3 7 6 4 8 13 13 21 18 1 0 0 0 0 0 0 0 0 0 0 0 0 0 0 0 0 0 0 0
0 0 3 0 1 0 0 1 1 1 1 1 2 0 0 0 0 0 0 0 0 0 0 0 0 0 0 0 0 0 0 0
0 0 0 0 0 0 1 1 1 1 1 1 0 0 0 0 0 0 0 0 0 0 0 0 0 0 0 0 0 0 0 0
0 0 0 0 0 0 0 0 0 1 0 0 0 0 0 0 0 0 0 0 10 1 0 0 0 0 0 0 0 0 0 0
0 0 3 3 0 0 0 0 0 1 2 1 0 0 0 0 0 7 14 12 18 12 5 8 0 0 0 0 0 0 0 0
0 0 0 2 0 0 0 0 0 1 1 1 0 0 1 0 0 1 19 15 21 17 25 17 3 0 0 0 2 12 13 0
0 0 0 2 0 0 0 0 0 0 0 0 0 0 1 0 0 0 0 5 2 10 25 34 24 1 0 0 0 9 0 0
0 0 1 4 1 1 0 0 0 0 0 0 0 0 0 0 0 0 0 0 0 1 3 24 13 0 0 0 7 1 0 1

GFSFLT2_con_sbcape_084.txt.gz
CAPE
1105 1303 1729 1565 1661 1379 1012 889 672 748 744 775 922 814 753 726 1080 1027 703 950 902 703 493 334 168 71 26 2 0 0 0 0
917 1392 1656 1627 1468 596 349 205 208 258 300 231 148 102 123 418 652 636 907 708 755 514 209 252 115 25 2 0 0 0 0 0
771 1139 1397 1624 846 533 351 273 116 42 64 19 5 11 41 46 271 370 246 343 445 134 237 154 42 2 0 0 0 0 0 0
555 913 908 882 741 605 283 113 6 0 1 1 3 25 23 11 145 130 205 193 135 68 132 39 0 0 0 0 0 0 0 0
390 319 353 140 293 378 248 154 32 4 2 2 1 0 51 55 94 89 80 104 0 0 10 0 0 0 0 0 0 0 0 0
306 298 17 104 152 223 132 204 48 2 3 1 8 20 22 53 86 65 51 19 0 0 0 0 0 0 0 0 0 0 0 0
69 157 151 46 8 23 10 10 42 1 0 0 15 16 34 14 125 54 53 0 0 0 0 0 0 0 0 0 0 0 0 0
19 55 89 48 24 1 1 1 0 1 0 1 55 29 72 70 101 34 0 0 0 0 0 0 0 0 0 0 0 0 0 0
0 0 0 24 2 1 1 1 0 1 1 0 50 32 18 77 28 0 0 0 0 0 0 0 0 0 0 0 0 0 0 0
0 0 1 4 3 1 1 1 0 3 1 0 13 24 30 32 18 20 0 0 0 0 0 0 0 0 0 0 0 0 0 0
0 0 0 27 2 2 3 0 1 1 3 6 0 43 62 67 21 0 0 0 0 0 0 0 0 0 0 0 0 0 0 0
0 0 0 0 3 28 10 1 1 2 9 24 2 3 52 43 0 0 0 0 0 0 0 0 0 0 0 0 0 0 0 0
0 0 0 0 0 3 11 5 2 2 13 68 30 7 37 0 0 0 0 0 0 0 0 0 0 0 0 0 0 0 0 0
0 0 0 3 0 4 3 1 14 15 12 1 0 1 0 0 0 0 0 0 0 0 0 0 0 0 0 0 0 0 0 0
0 0 0 0 2 0 1 0 1 19 25 1 1 0 0 0 0 0 0 0 0 0 0 0 0 0 0 0 0 0 0 0
0 0 0 0 0 1 1 5 6 1 1 3 2 0 0 0 0 0 0 0 0 0 0 0 0 0 0 0 0 0 0 0
0 0 0 3 0 2 2 0 0 1 1 1 2 3 0 0 0 0 0 0 0 2 3 2 0 0 0 0 0 0 0 0
0 0 0 1 0 0 0 0 1 1 1 1 1 1 3 0 0 0 0 0 2 7 23 20 4 0 0 0 0 0 0 1
1 0 1 2 0 0 0 0 0 0 1 1 1 1 2 3 0 0 7 21 32 44 51 39 16 3 0 0 0 0 4 7
0 0 1 1 2 0 0 0 0 0 0 1 1 1 2 1 2 1 3 10 10 43 77 53 39 19 6 0 0 0 0 1

GFSFLT2_con_sbcape_087.txt.gz
CAPE
1053 1431 1767 1294 1495 1637 1509 1511 1611 1619 1442 1349 1395 1135 980 1132 1030 1000 939 1284 1125 972 831 612 505 249 69 6 0 11 135 130
1223 1421 1787 1811 1699 1333 1294 1149 1023 790 673 600 545 714 849 891 862 977 1021 1165 1023 777 572 411 231 68 0 0 0 0 25 10
1318 1637 1917 2006 1713 1033 827 786 627 562 593 240 153 705 664 556 371 409 445 655 610 494 328 200 61 3 0 0 0 0 0 7
1045 1530 1773 1987 1245 829 946 1148 1087 691 689 418 665 581 455 208 247 176 278 351 191 280 169 49 43 80 0 0 0 0 0 0
857 1145 1515 1471 1030 838 540 446 550 613 79 41 213 180 85 67 143 127 147 106 71 253 167 200 109 72 13 1 0 0 0 1
750 836 959 907 851 877 496 173 109 162 210 0 7 42 24 34 310 299 107 54 76 241 223 83 23 5 2 0 0 0 0 1
981 752 681 566 526 694 452 348 138 152 31 3 2 47 28 86 228 233 73 1 7 170 65 15 10 0 0 0 0 0 0 5
1358 672 675 454 333 392 334 328 261 60 20 7 5 21 47 161 391 118 112 0 15 60 45 1 0 0 0 0 0 0 0 13
1050 676 669 620 291 191 98 43 89 1 1 2 6 20 137 200 153 169 21 0 0 50 33 0 0 0 0 0 0 0 2 15
757 460 255 470 484 171 52 2 2 2 2 2 38 63 164 125 107 60 5 0 7 7 0 1 0 0 0 0 0 0 15 19
610 476 99 241 355 172 38 3 2 2 5 3 51 62 98 114 43 10 0 0 10 0 0 0 4 1 0 0 0 0 10 11
517 324 158 412 326 183 95 9 8 3 5 19 66 68 137 96 26 1 1 3 1 0 0 0 0 1 0 1 4 5 8 12
232 189 45 152 257 229 84 7 7 5 7 31 22 65 76 43 1 1 1 13 0 0 0 0 5 0 3 12 9 7 7 8
107 132 49 12 184 197 134 44 15 13 7 45 21 40 81 2 0 1 1 29 0 0 0 1 1 4 0 1 8 9 13 6
27 78 23 15 6 6 12 18 13 37 17 12 27 16 46 1 0 1 10 2 0 0 0 0 0 2 0 25 36 39 5 8
31 17 10 10 8 9 14 14 26 3 40 1 0 1 2 0 0 1 0 0 0 0 0 0 28 22 13 0 23 40 80 51
0 4 0 2 7 12 15 8 13 33 4 1 1 2 1 0 0 0 0 0 0 0 0 0 43 46 15 15 16 18 43 57
2 2 2 3 4 12 10 20 15 10 3 5 3 1 2 0 0 0 0 0 0 0 0 0 6 38 68 111 57 41 36 88
5 2 3 8 11 12 10 8 13 11 1 3 5 3 3 9 2 0 0 0 0 0 0 0 0 36 60 81 87 112 109 84
3 1 2 6 7 5 5 3 3 2 1 1 2 3 3 0 0 0 0 0 0 0 3 16 30 82 75 76 91 78 84 83

GFSFLT2_con_sbcape_090.txt.gz
CAPE
1865 1732 1482 1219 1489 1726 1590 1349 1556 1905 1974 1930 1779 1454 1273 1457 1385 1557 1317 1364 1330 1272 1047 829 702 439 181 47 95 165 358 300
2072 1773 1835 1937 1925 1401 1523 1408 1436 1580 1407 1380 1256 1100 1115 1221 1123 1126 1272 1317 1222 1040 694 631 425 148 10 0 25 91 242 188
2208 1924 2127 1955 2180 2005 1315 1362 1248 825 918 709 1028 1831 1431 1006 594 455 629 794 888 720 450 287 114 24 5 0 5 219 193 89
1889 2316 2177 2225 2078 2319 2082 2011 1981 2012 1857 1611 1895 1492 1308 753 228 165 336 453 514 315 183 68 167 337 192 17 278 167 111 43
1684 2180 2088 2353 2307 2090 2199 2311 2135 1833 1726 1667 1554 1436 950 765 483 442 499 275 296 209 123 482 366 349 316 275 139 197 76 72
1879 1829 2256 2169 2323 1790 1700 1756 1976 1726 1657 1252 1231 820 855 642 171 171 240 354 231 127 230 520 308 246 271 219 176 117 64 40
2206 1861 2051 2128 1787 1529 1337 1381 1414 1468 1406 1083 773 510 479 280 117 197 481 184 104 84 183 316 313 237 197 193 138 55 41 20
2401 1752 1839 1604 1664 1497 1174 1121 1022 1093 1188 662 890 213 252 180 214 407 544 231 117 98 134 311 280 232 222 172 71 31 20 5
2155 2034 1441 1326 1336 1515 1358 1269 1108 842 735 254 397 48 148 200 180 166 392 186 35 72 215 303 250 200 179 124 29 16 9 8
1811 1909 1457 1472 1114 1052 1116 1215 992 676 517 190 10 23 81 444 150 108 235 94 29 65 202 273 207 172 138 96 14 9 12 25
1532 2061 1490 1481 1155 820 993 884 600 428 80 13 26 36 77 188 260 143 67 16 1 87 162 213 166 148 93 48 19 28 18 9
1150 1824 1557 1205 1186 1169 1020 728 358 288 19 9 15 61 93 141 90 49 4 2 1 59 165 201 187 140 64 34 75 25 17 9
953 1634 1135 1059 1127 1046 820 570 281 111 37 7 12 34 65 136 69 4 1 3 2 127 160 214 150 159 74 60 88 20 21 29
909 1394 797 1183 1404 1239 732 358 279 112 12 11 11 16 88 120 28 2 4 1 0 201 188 176 180 172 93 78 40 48 22 23
829 1213 949 1288 1056 817 565 444 242 190 30 12 10 34 112 51 3 4 6 8 2 130 201 150 110 162 136 93 67 26 42 31
743 978 1177 1018 845 716 608 424 182 129 23 23 41 3 48 17 2 2 3 11 45 130 221 212 196 135 136 103 59 44 92 87
644 941 873 686 582 565 370 186 113 234 188 53 41 33 6 4 2 3 2 16 109 161 187 189 113 154 113 140 161 183 162 100
382 747 731 558 474 328 276 172 32 103 21 31 3 1 5 1 1 1 0 2 73 89 43 196 194 212 148 149 153 133 177 143
173 535 505 340 307 207 146 76 81 92 12 3 4 4 1 1 1 0 0 6 40 28 48 143 130 202 236 208 213 168 164 171
42 170 362 177 122 85 51 132 73 53 11 9 2 5 3 3 2 1 5 6 6 9 28 27 64 140 176 183 204 224 195 168

GFSFLT2_con_sbcape_093.txt.gz
CAPE
2197 1610 1402 1183 1486 1704 1371 1639 1941 2002 2021 1940 1987 1858 1590 1818 1747 1541 1422 1624 1630 1440 1224 1021 922 581 589 364 283 150 708 441
2382 2152 1868 1841 1812 1532 1447 1440 1590 1883 1631 1312 1414 1284 1282 1313 1281 1374 1329 1386 1308 1215 950 770 530 313 302 129 119 137 291 338
2567 2255 2121 2067 1942 1785 1387 1327 1387 1353 1300 1105 1210 1841 1787 1454 1138 1046 955 847 673 703 544 397 221 137 92 46 102 372 420 175
2719 2495 2266 2183 1746 2093 1925 1915 1941 2059 1922 1894 2050 1668 1687 1164 705 376 376 411 477 398 239 169 227 504 348 77 347 364 106 67
2527 2554 2557 2417 1875 1950 1968 2244 1990 2053 2092 1764 1601 1643 1691 1669 967 407 288 246 598 344 134 313 644 782 644 493 336 135 43 29
2679 2437 2592 2683 2328 1987 1892 1888 2424 2185 2260 2459 2215 1873 1888 1475 934 525 300 209 517 252 199 220 338 457 589 372 188 122 113 58
2574 2270 2534 2572 2833 2402 2267 2244 2082 2172 2363 2141 1929 1676 1612 1152 518 529 663 325 120 87 119 165 168 278 320 296 243 224 78 82
2880 2628 2523 2468 2611 2528 2424 2207 2014 2102 1972 2151 1822 1774 1399 864 563 367 262 201 114 94 103 107 139 135 298 195 186 127 42 33
2567 3174 2359 2583 2341 2289 2097 2003 1978 1670 1910 2077 1796 1522 1158 817 445 439 805 177 279 84 80 61 99 140 228 229 93 42 27 15
637 2280 2235 2140 1954 2153 2004 1905 1983 1876 1555 1687 1552 1269 855 525 170 481 258 170 148 74 65 59 67 107 179 105 50 44 27 16
332 2034 2375 1847 1820 1905 1838 1857 1783 1818 1690 1347 1075 829 639 341 736 226 122 42 92 162 52 57 69 135 127 140 58 17 20 14
146 1649 2566 1718 1725 1566 1447 1517 1566 1168 1122 1165 732 629 485 620 327 120 282 39 71 100 47 49 104 148 94 65 49 44 15 13
214 1164 2517 1913 1378 1176 1375 1355 1008 987 630 510 559 373 179 110 85 137 91 1 27 24 41 42 63 282 148 90 129 112 61 26
256 794 1806 1735 1225 1465 1747 1402 1243 868 739 363 333 232 124 23 97 59 4 2 5 2 32 32 55 154 124 80 77 51 67 41
172 707 1490 1616 1691 1727 1610 1247 673 579 568 544 402 226 65 48 53 9 1 1 7 4 40 42 105 94 125 18 51 39 36 20
265 677 1516 1300 1694 1659 1550 793 569 639 615 417 122 15 11 21 10 3 4 2 2 4 37 47 92 111 137 150 83 55 41 33
426 749 1364 1375 1735 1562 1583 1188 1015 662 586 499 179 10 11 17 1 3 4 2 3 13 41 118 112 161 146 137 162 127 150 104
721 912 1183 1302 1485 1434 1379 1136 809 394 609 615 184 17 5 2 2 6 7 5 8 6 68 91 133 236 219 173 168 132 120 127
921 939 1146 1229 1265 1235 1147 878 594 382 361 378 12 4 2 12 2 2 9 3 6 28 63 172 271 256 278 138 190 222 193 146
447 954 1039 1136 1136 1045 753 557 342 354 347 50 7 2 2 0 7 3 9 7 3 39 120 185 174 227 161 144 150 243 202 178

GFSFLT2_con_sbcape_096.txt.gz
CAPE
1681 1325 1327 1321 1539 1459 1325 1498 1645 1961 1982 2067 2029 1923 1480 1635 1674 1578 1435 1477 1415 1537 1346 1183 1136 990 819 669 314 262 317 401
2205 1872 1572 1418 1422 1344 1145 1375 1533 1801 1881 1905 1966 1650 1301 1492 1407 1331 1163 1255 1205 1199 967 868 839 739 589 134 190 269 371 237
2876 2355 1965 1842 1709 1475 1059 1281 1392 1579 1637 1484 1274 1703 1490 1425 1292 1083 910 794 694 514 434 467 335 323 318 162 123 166 208 111
2781 2702 2323 2221 1801 1704 1595 1659 1596 1705 1815 1835 1696 1786 1579 1339 991 736 610 574 443 414 310 149 135 221 66 25 61 194 103 42
2840 2578 2601 2550 1769 2057 1670 1737 1642 1779 1939 2008 2125 1610 1553 1246 522 419 384 342 265 215 186 150 263 281 187 147 146 37 74 23
2529 2649 2708 2707 2246 2151 1861 1780 1725 1837 1893 2032 1817 1571 1552 1254 792 418 193 145 145 185 126 130 105 231 214 288 81 1 9 49
2649 2409 2679 2757 2681 2049 2249 1862 1832 1968 2114 2115 1944 1634 1553 1237 1000 520 183 79 151 132 67 31 91 100 132 183 128 62 20 27
2716 2443 2630 2524 2467 2452 2132 2413 2323 2151 2079 2015 1916 1747 1613 1201 896 508 376 219 197 72 60 5 32 71 104 154 125 71 26 16
2767 2551 2496 2566 2493 2484 2302 2040 1942 2038 2008 1945 1798 1626 1444 1054 836 544 406 307 73 34 39 15 66 81 71 76 138 63 16 12
2270 2807 2539 2528 2457 2276 1679 2049 1855 1683 1676 1941 1839 1689 1318 1054 767 574 358 194 131 104 65 76 53 37 32 58 93 13 24 0
129 2832 2760 2340 2192 1642 1419 1613 1817 1536 1437 1435 1723 1616 1216 863 556 507 316 188 136 79 47 46 11 39 37 38 35 17 0 0
35 2978 2669 2255 2048 1558 1535 1375 1321 1638 1521 1294 1198 1278 1046 777 509 346 253 126 98 51 25 11 10 16 160 70 1 1 0 12
61 1807 2601 2146 1820 1495 1358 1298 1227 1179 1387 1351 1168 886 684 635 378 227 135 68 72 42 19 23 22 47 27 28 28 4 0 10
31 1191 2460 1905 1664 1448 1191 1020 1052 991 785 784 760 622 474 431 351 175 28 27 13 45 23 20 30 40 15 27 34 25 43 19
37 457 2481 2132 1692 1193 1166 1102 1213 1054 772 472 441 475 331 247 234 112 33 7 29 36 9 3 23 23 9 5 12 19 18 27
0 161 729 2225 1449 1238 1411 1431 1030 729 570 454 369 301 278 235 125 44 22 3 8 14 6 3 5 15 13 19 3 0 0 11
67 199 454 1872 1450 1429 1495 1316 838 563 484 464 302 223 217 134 64 28 17 5 5 13 16 7 5 7 11 14 28 15 0 0
281 476 948 1695 1565 1524 1740 1107 980 774 512 554 306 128 45 36 19 11 1 1 2 4 5 15 6 10 13 8 13 42 1 0
616 637 845 1520 1377 1564 1730 1266 1182 1017 575 464 427 130 19 5 8 7 2 1 1 2 6 9 4 16 29 26 71 56 59 46
914 834 900 1531 1309 1583 1363 967 988 673 356 501 197 20 1 4 1 1 2 1 3 20 12 2 5 17 32 51 116 124 120 112

GFSFLT2_con_sbcape_099.txt.gz
CAPE
1019 1220 1404 1467 1494 1578 1683 1819 1792 1339 1606 1912 2037 1929 1626 1588 1646 1538 1591 1599 1351 1473 1317 1204 1210 1048 796 453 312 418 283 323
931 989 1118 971 1021 1325 1406 1656 1380 1409 1555 1685 1836 1743 1400 1487 1398 1276 1204 1400 1445 1075 898 853 885 670 317 360 218 198 83 104
1208 1164 1067 901 923 977 1118 1209 1171 1353 1586 1430 1383 1299 1136 1256 1226 1142 1068 1111 820 692 594 450 404 166 75 78 101 68 18 17
1574 1373 1289 1073 1345 1079 792 1111 1099 1352 1546 1359 1116 1194 1121 1251 1056 838 655 572 299 298 240 243 302 180 42 31 8 0 3 3
1976 1839 1529 1426 1485 995 1062 1020 1051 1128 1210 1252 1139 1294 1058 605 277 326 285 279 120 5 18 111 162 161 103 38 12 3 0 12
2176 2018 1938 1688 1263 1056 1057 1163 1051 1167 1261 1270 1346 933 658 275 190 115 175 107 39 0 46 139 143 248 139 73 20 7 0 7
2323 1917 2079 2061 1445 1455 1149 1271 1199 1202 1219 1214 1142 811 719 363 213 141 145 85 15 0 10 19 75 102 92 84 12 0 11 4
2405 2109 2061 2004 1985 1409 1289 1227 1101 1248 1280 1334 1096 876 841 536 341 208 122 140 12 6 2 0 35 64 72 82 36 8 12 11
2198 2329 2183 2184 2005 1629 1414 1339 1197 1314 1386 1334 1070 948 868 659 574 420 371 156 110 17 0 0 6 48 50 79 55 32 7 6
2064 2251 2200 2308 2137 1855 1534 1349 1223 1162 1257 1330 1079 842 793 624 556 474 394 214 165 45 14 1 2 24 35 32 45 25 12 2
1392 2269 2172 2246 1930 1863 1597 1527 1144 993 927 1144 1091 918 805 651 574 577 454 329 128 56 37 3 12 18 33 10 34 0 0 0
221 2313 2121 2082 1845 1423 1098 1241 1367 865 786 995 1052 995 698 523 410 380 312 178 122 40 59 46 65 33 50 40 28 0 0 0
29 2379 2073 2043 1801 1438 1218 1218 1272 1211 1007 798 1059 1122 788 697 569 438 279 180 54 35 40 64 23 22 1 18 1 0 0 0
69 2411 2146 2027 1857 1544 1314 1183 1027 954 986 907 935 836 770 655 534 394 289 136 60 17 13 30 24 6 3 10 3 0 0 0
908 2398 2113 1897 1596 1148 772 680 723 750 690 757 713 736 607 470 399 258 228 149 72 32 1 20 5 15 11 0 0 0 3 0
753 2327 1913 1502 1224 1244 803 914 875 857 775 576 498 533 459 348 317 193 153 95 36 21 1 7 13 11 41 10 0 0 0 2
102 2179 1804 1488 1169 1054 904 769 599 620 484 380 411 342 351 216 192 175 118 30 6 16 9 1 0 10 15 5 0 0 0 0
0 1484 1996 1416 1004 805 764 785 604 315 318 350 350 258 225 170 166 141 101 53 10 8 8 0 3 1 5 0 0 0 0 0
0 74 1835 1255 936 880 814 749 511 222 169 276 176 165 141 106 110 79 45 9 10 13 6 12 1 0 0 0 0 0 1 1
16 851 1505 1180 1068 925 864 805 706 553 252 264 207 175 67 8 22 24 33 9 6 7 21 17 5 0 5 0 0 0 9 30

GFSFLT2_con_sbcape_102.txt.gz
CAPE
1112 1361 1551 1630 1688 1663 1650 1680 1680 1716 1745 1871 1976 1934 1778 1753 1758 1723 1768 1608 1573 1480 1229 1125 1136 955 643 346 405 302 245 355
1061 1197 1317 1329 1320 1474 1538 1592 1522 1410 1649 1823 1862 1754 1540 1502 1561 1571 1455 1346 1365 1071 907 840 936 499 376 211 272 234 283 241
1018 1063 1109 948 1041 1252 1475 1539 1511 1291 1360 1603 1669 1450 1261 1316 1124 1243 1248 1281 861 747 719 584 296 153 114 47 68 57 69 70
1089 992 1007 954 1322 1056 937 1202 1060 1144 1205 1114 1253 1164 953 1128 1087 1024 910 693 488 313 326 258 190 124 93 53 6 2 0 1
1259 1063 986 1052 1316 1044 812 1035 1066 1088 1260 1203 1031 1086 899 780 612 414 192 168 127 133 95 66 134 82 58 58 7 7 3 9
1595 1378 1210 1135 1135 976 889 1055 939 1007 1074 1233 1302 1123 572 376 300 98 144 58 10 0 0 35 105 86 52 29 40 34 5 10
1940 1690 1448 1379 1267 936 908 865 901 1006 998 1090 1271 932 489 207 102 106 109 63 19 1 0 56 79 155 104 58 36 33 2 12
2199 1988 1757 1567 1437 1151 954 1037 974 939 1145 1197 1202 910 475 261 128 144 158 103 23 21 30 10 1 65 74 59 29 11 5 12
2406 2032 2018 1838 1671 1427 1108 1067 1020 1018 1079 1076 1094 779 457 258 179 152 213 156 71 32 23 33 24 48 83 45 41 14 8 16
2416 2369 1995 1888 1955 1529 1310 1049 1046 1113 1098 1002 821 786 532 339 236 180 192 227 215 202 116 38 25 33 16 35 44 24 5 19
1961 2293 2090 1964 1845 1699 1426 1118 1093 947 1013 1065 731 679 524 514 332 247 265 350 356 303 159 30 1 2 9 16 38 23 6 31
847 1934 2114 2224 1937 1783 1205 991 881 844 949 1047 615 654 477 426 281 308 331 330 380 269 150 41 1 3 55 70 20 0 0 2
0 1593 1926 2211 1981 1741 1296 1312 1150 846 787 791 732 436 381 317 267 319 440 452 348 236 131 81 34 20 72 1 9 0 0 0
0 1256 1837 2188 1983 1866 1529 1549 1067 998 786 826 1103 780 510 386 346 388 435 381 262 162 67 77 47 54 37 18 4 2 0 1
0 607 1797 2090 2041 1752 903 650 387 552 830 890 780 784 631 544 420 460 378 313 166 98 36 39 11 15 0 1 0 2 0 0
0 271 1770 2004 1946 1596 1322 1318 1167 1138 1006 898 710 533 602 411 358 295 354 278 170 131 79 36 5 5 2 2 0 0 0 0
428 1180 1905 1989 1741 1568 1314 1168 1015 562 551 677 578 506 409 299 360 250 285 238 171 121 79 9 1 3 2 3 0 0 0 0
46 2098 2066 1789 1678 1389 1251 956 556 546 575 509 467 466 386 299 265 272 219 192 160 102 35 13 20 0 5 2 0 0 0 0
0 1987 1955 1628 1472 1189 955 636 378 513 389 357 368 308 304 339 229 208 178 126 90 43 25 4 14 9 0 3 0 0 0 0
0 675 1821 1434 1023 824 674 494 381 316 147 71 194 197 154 171 224 187 142 127 107 33 9 12 8 9 0 2 0 0 0 0

GFSFLT2_con_sbcape_108.txt.gz
CAPE
1487 1589 1705 1766 1836 1801 1707 1621 1622 1661 1792 1986 2057 1996 1891 1883 1892 1810 1820 1682 1551 1331 1121 1021 1012 741 544 332 388 277 192 214
1362 1483 1594 1528 1586 1603 1614 1633 1612 1646 1690 1882 1880 1741 1721 1788 1713 1677 1503 1497 1407 1181 963 916 868 478 352 238 250 188 106 150
1264 1247 1500 1475 1510 1467 1524 1575 1599 1634 1651 1701 1630 1579 1516 1615 1548 1565 1449 1326 1223 1038 872 826 655 334 287 203 171 94 74 101
992 1064 1346 1464 1494 1537 1640 1673 1649 1619 1619 1550 1397 1290 1264 1458 1396 1393 1162 1029 1061 934 799 635 409 76 160 213 97 80 93 78
729 975 1178 1179 1345 1385 1533 1582 1409 1324 1402 1491 1496 1152 1072 1158 1116 1047 736 806 731 730 472 368 125 26 35 38 40 13 60 92
841 809 917 944 1050 1307 1150 1307 1151 1125 1107 1264 1294 1227 1144 940 855 587 499 363 150 201 113 40 42 40 38 32 31 30 23 42
1368 877 892 781 1095 1192 1121 1185 1344 1229 1074 964 1208 1443 1397 1165 708 479 371 52 39 21 10 19 13 34 50 61 47 49 17 22
1619 1167 967 1033 1121 1030 1087 1225 1393 1287 1124 978 1032 1406 1363 1064 634 595 160 93 30 23 23 28 22 33 65 83 82 112 93 42
1504 1606 1183 995 989 798 836 1012 1156 1166 969 885 1041 1124 1276 1030 689 596 449 40 16 8 1 0 8 30 68 82 106 204 184 54
0 1753 1426 1210 1068 985 742 720 859 769 733 853 1122 1048 1012 769 642 570 395 61 15 13 1 7 18 90 106 74 109 126 113 81
0 827 1685 1423 1263 1133 805 787 782 811 750 704 923 1045 872 647 634 477 225 83 47 24 10 28 51 98 191 175 186 148 131 106
0 12 1569 1704 1678 1354 1130 863 785 797 839 735 817 900 788 768 451 333 163 110 70 40 37 71 101 103 195 162 187 117 92 108
0 0 34 1780 1913 1755 1612 1159 1164 966 864 859 924 934 763 700 405 218 122 125 99 63 77 75 39 33 61 54 29 38 69 44
0 0 0 1172 1459 1856 1767 1687 1468 1306 1086 891 842 909 696 633 470 296 149 136 153 131 110 104 65 21 33 12 5 2 9 48
0 0 0 434 1391 1965 1675 1573 1299 1068 969 987 927 841 729 655 534 383 247 133 218 191 163 133 122 40 51 8 6 3 1 1
0 0 0 459 1649 1911 1711 1585 1511 1199 1191 1102 921 808 740 707 626 404 279 261 245 193 181 154 82 106 42 41 0 0 0 0
0 0 0 0 1499 1747 1846 1658 1392 1241 1328 1039 970 762 744 699 595 524 422 354 297 229 184 163 87 105 83 43 17 0 0 1
0 0 0 0 1379 1822 1816 1598 1309 1107 1314 1156 913 1018 845 686 586 500 464 401 367 239 175 141 125 95 70 10 18 14 0 0
1 0 0 543 1356 1841 1780 1477 1203 1130 1206 1154 942 817 815 724 493 494 433 441 356 256 183 186 129 138 65 54 11 9 3 0
3 3 0 0 1236 1870 1863 1378 973 927 994 996 862 575 748 517 402 328 399 370 303 226 225 215 188 165 110 42 31 11 3 0

GFSFLT2_con_sbcape_111.txt.gz
CAPE
2115 1905 1901 1924 1979 1905 1638 1547 1674 1873 1947 2114 2295 2197 2016 2011 2046 2012 1967 1713 1607 1520 1262 1130 1088 917 626 416 436 666 1427 1291
2082 1882 1884 2313 2413 1676 1555 1553 1596 1765 1897 1992 2058 1995 1949 1907 1947 1955 1924 1668 1530 1330 1107 1038 907 681 425 303 341 315 1509 1399
1655 1794 1805 2225 2441 2169 1623 1559 1541 1632 1809 1841 1794 2500 2463 2224 2113 1844 1661 1594 1338 1131 968 925 670 508 337 226 207 1216 1476 1439
1183 1379 1550 1980 2074 2174 2395 2226 2149 2120 2092 2229 2397 2403 2499 2277 1983 1494 1462 1322 1097 977 856 748 632 1212 1055 322 1197 1267 1303 1314
1076 1084 1387 1760 1824 1654 1869 2049 1962 1966 1941 2026 2160 2157 2367 2387 2397 2112 2167 1307 1765 1151 1130 1376 1392 1315 1347 1372 1339 1264 1227 1190
1560 1462 1224 1387 1520 1527 1703 1972 1845 1664 1667 1829 1925 1653 1891 2087 2226 2309 2238 2049 2036 1726 1748 1552 1526 1262 1228 1244 1238 1279 1277 1040
1638 1632 1616 1272 1268 1331 1521 1592 1638 1568 1523 1646 1688 1484 1593 1732 1965 2104 2133 1915 1726 1724 1519 1488 1444 1213 1103 1133 1090 1143 1040 1031
2262 1668 1691 1552 1233 1239 1412 1492 1544 1499 1822 2088 1680 1655 1597 1669 1547 1846 1896 1666 1471 1497 1346 1282 1325 1240 1143 1102 1060 1079 985 975
406 2187 1785 1586 1673 1679 1428 1611 1539 1516 2032 2293 2130 2195 1988 1599 1536 1362 1566 1297 1206 1112 1150 1152 1273 1074 1185 1064 997 993 938 817
0 376 1946 1848 1894 1931 1905 1743 1878 1866 2032 2003 2238 2189 1944 1787 1313 1302 1426 899 974 966 975 1009 1075 1023 1007 911 1001 908 857 783
0 0 1018 1965 2062 2016 1932 1813 1896 1990 1926 1965 1954 2042 1562 1572 1379 1063 1009 797 635 819 836 996 863 720 720 763 789 679 654 719
0 0 0 1469 2033 2281 2027 1922 1862 1826 1728 1477 1436 1477 1157 1374 1353 963 810 581 486 378 567 532 771 866 504 673 693 457 848 656
0 0 0 123 1345 1759 1638 1368 1509 1761 1484 1510 1354 1243 1078 1196 1394 765 720 665 466 282 342 367 261 244 216 244 313 462 406 408
0 0 0 0 587 1523 1716 1613 1571 1760 1393 1218 1221 1190 1097 981 1056 763 629 684 426 306 287 242 285 192 253 229 296 341 496 536
0 0 0 0 0 890 2009 2103 2166 1504 1284 1337 1105 1215 1130 925 903 754 586 580 517 447 355 351 295 108 272 282 185 174 109 189
0 0 0 0 0 93 1733 1766 1554 1406 1599 1579 1379 1157 1113 941 775 733 507 496 633 521 421 417 451 182 98 139 416 135 168 25
0 0 0 0 0 110 1844 2052 1983 1902 2153 2051 1534 1115 1049 865 795 650 557 658 700 493 457 430 548 376 185 148 283 192 8 13
0 0 0 1 104 144 1715 2196 2060 2175 2203 1816 1476 1386 978 890 729 569 574 530 653 430 479 478 343 317 273 313 174 154 6 7
6 7 3 1 3 233 1677 2261 2422 2315 2107 1974 1547 1213 924 798 808 596 561 523 580 608 469 432 382 305 333 322 233 271 71 6
10 14 5 4 4 84 1519 1641 1764 2161 2092 1949 1762 1471 1077 869 701 667 624 549 509 566 500 412 348 300 360 288 256 174 93 9

GFSFLT2_con_sbcape_114.txt.gz
CAPE
2788 2267 2212 1890 1988 1856 1686 1710 1860 2044 2218 2375 2480 2329 2149 2137 2229 2268 2218 1837 1724 1736 1461 1328 1312 1149 907 652 745 937 1242 1358
3027 2371 2557 2628 2525 1670 1581 1618 1735 1888 2048 2240 2286 2125 2048 2067 2138 2134 2062 1807 1747 1614 1338 1256 1208 955 683 512 656 852 1456 1079
2515 2294 2292 2742 2841 2370 1573 1523 1634 1780 1916 1964 2085 2546 2629 2546 2170 2047 1991 1756 1645 1439 1231 1161 990 705 513 355 438 1302 1231 1116
2221 2246 2143 2388 2627 2842 2686 2444 2249 2224 2170 2419 2474 2464 2533 2385 2175 1819 1565 1549 1379 1221 1106 922 875 1437 1271 503 1373 985 1087 1050
2314 2120 2182 2366 2689 2513 2657 2598 2571 2578 2605 2597 2441 2465 2631 2666 2543 2456 2533 1626 2231 1318 1487 1643 1404 1303 1255 1316 1148 1257 1069 1019
2258 2396 2291 2544 2591 2105 2256 2800 2531 2554 2658 2807 2628 2836 2751 2579 2641 2482 2423 2621 2277 1940 1740 1606 1564 1452 1387 1380 1337 1248 859 1160
1990 2276 2323 2355 2440 2241 2096 2521 2493 2653 2554 2386 2728 2719 2543 2568 2481 2430 2495 2308 2415 2149 1904 1815 1667 1496 1477 1455 1404 1308 1083 1231
0 1534 2302 2305 2352 2428 2460 2590 2410 2443 2257 2296 2385 2575 2482 2195 2465 2528 2470 2296 2431 2352 2078 1988 1825 1679 1483 1320 1297 1298 1165 1089
0 0 1326 2469 2389 2354 2348 2290 2245 2202 2078 2594 2360 2354 2542 2189 2294 2433 2311 2689 2312 2429 2037 1820 1620 1714 1563 1311 1443 1263 1095 952
0 0 0 1685 2430 2347 2187 2146 2187 2114 2148 2599 2879 2230 2537 2299 2187 2299 2537 2754 2474 2267 2019 1897 1804 1644 1591 1328 1241 1173 1098 1031
0 0 0 556 1766 2401 2609 2376 2259 2178 2195 2348 2577 2823 2988 2712 2370 2096 2353 2114 2322 2163 2075 2011 1745 1479 1401 1327 1409 1127 1101 917
0 0 0 0 718 1872 1937 2327 2551 2321 2291 2373 2554 2903 2801 2965 2313 2348 2115 1569 1747 2204 2127 1866 1893 1596 1393 1315 1316 1255 1166 1054
0 0 0 0 0 418 1027 1966 2146 2408 2536 2476 2492 2808 2845 2713 2137 2142 1648 1507 1588 1776 1770 1897 2024 1818 1508 1313 1321 1031 1018 937
0 0 0 0 0 0 717 1271 1652 1799 2369 2797 2635 2448 2498 2679 2377 2082 1607 1458 1271 1437 1345 1124 1176 1342 936 852 844 899 905 921
0 0 0 0 0 0 0 884 1395 1691 2279 2877 2917 2396 2394 2727 2262 1877 1488 1464 1060 1073 1318 1081 813 796 1455 919 878 572 522 762
0 0 0 0 0 0 0 22 954 1568 1771 2152 2554 2809 2464 2280 2097 1896 1498 1377 1110 970 1118 1342 1086 601 678 1258 903 618 481 425
3 3 1 2 6 6 5 5 1126 1322 2036 1943 2164 2276 1977 1910 1872 1934 1485 1509 1134 973 1010 1198 1113 937 569 655 1111 969 639 456
2 3 1 2 5 10 15 199 482 1442 1657 2146 2386 2306 1652 1518 1464 1587 1521 1371 1116 956 981 1176 1101 957 636 1268 959 830 793 484
1 1 3 1 7 8 12 76 586 1943 1679 2364 2392 1972 1470 1405 1378 1346 1308 1261 1183 835 761 990 1015 778 1328 1202 1020 654 449 512
10 8 5 3 11 11 9 54 922 1800 2039 2048 2305 2034 1627 1390 1491 1355 1294 1254 1180 1118 869 748 830 967 1374 1448 1156 898 798 723

GFSFLT2_con_sbcape_117.txt.gz
CAPE
3397 2546 2114 1745 1845 1866 1896 2064 2221 2343 2449 2494 2611 2491 2257 2197 2260 2389 2499 2457 2255 1873 1564 1443 1424 1309 1116 938 989 884 1365 1082
3491 2851 2595 2324 2047 1578 1597 1875 2076 2247 2299 2406 2394 2290 2139 2140 2203 2293 2387 2020 1903 1715 1435 1355 1318 1108 883 761 959 959 1492 1141
3494 2957 2820 2769 2483 2080 1472 1528 1769 1950 2195 2185 2218 2811 2740 2597 2267 2161 2138 1806 1721 1587 1325 1245 1138 873 691 558 863 1112 772 1087
2974 3014 2881 3307 2707 2884 2251 2084 1969 2190 2337 2729 2805 2541 2793 2264 2113 1985 1901 1742 1598 1444 1243 1104 1000 1456 1299 528 1418 1086 821 993
2766 2758 2776 2772 3138 2997 2638 2563 2356 2370 2415 2530 2487 2666 2996 2477 2826 2498 2632 1576 2327 1539 1413 1543 1418 1349 1188 1168 1063 1260 981 812
2731 2945 2821 2771 3270 2801 2675 2635 2885 2722 2789 3570 3238 3053 3217 3029 2622 2647 2885 2622 2420 2170 1827 1628 1891 1876 1750 1352 1298 1464 1252 1288
1097 2674 2978 3147 3142 2937 2974 3083 2618 2739 2788 3407 3052 2690 3409 3085 2640 2839 2659 2444 2615 2446 2015 2019 1847 1590 1606 1582 1535 1563 1529 1012
0 36 2597 2774 3033 3241 3346 3254 2991 3000 2835 2857 3681 3185 3085 2810 2952 2377 2743 2415 2259 2590 2256 1946 1987 1747 1785 1580 1681 1287 1441 1431
0 0 0 1603 2427 2751 3064 2695 2821 2853 2768 3450 2853 3489 3633 3192 2879 2748 2107 2431 2847 2951 2731 2314 2031 2123 1889 1767 1535 1446 1597 1444
0 0 0 0 1061 1990 2611 2745 2985 2775 2904 2637 3073 2752 3241 3215 2715 3007 2712 2712 2870 2756 2676 2499 1973 1734 1926 1930 1703 1628 1581 1472
0 0 0 0 6 1207 2219 2814 2946 2707 2604 2666 2996 2976 3326 3332 2688 2674 3336 2886 2981 2653 2417 2492 2456 2143 1978 1827 1844 1652 1582 1056
0 0 0 0 0 29 997 1932 2522 2923 2850 2550 2824 3463 3365 3232 2724 2889 2795 2962 3075 3059 2725 2457 2255 2153 1584 1680 2016 1674 1519 1264
0 0 0 0 0 0 23 1726 2151 2723 2842 3081 2670 3117 3639 3445 3256 3283 2958 2627 2542 2862 2854 2725 2311 2398 2089 1990 1845 1783 1690 1395
0 0 0 0 0 0 0 6 1150 2272 2677 2866 3300 3430 3579 3685 3612 3331 3288 2558 1960 2202 2293 2681 2851 2767 2046 1705 1104 1202 1323 1376
0 0 0 0 1 0 0 16 7 1520 2343 2586 2998 3395 3607 3733 3706 3466 3281 2871 2504 1893 1808 1852 1920 2488 2513 1307 1008 706 913 1236
5 3 1 0 2 1 0 0 0 443 2095 2392 2405 3257 3482 3752 3819 3675 3328 2804 2337 1849 1648 1609 1381 1299 1752 1935 1703 920 725 678
5 7 5 3 5 6 6 3 2 93 263 2328 2482 2879 3082 3572 3621 3550 3257 2749 2431 2107 1624 1518 1426 1252 1133 1726 2154 1926 1668 1030
7 8 7 6 6 7 8 12 6 16 302 1102 1993 2406 2679 3433 3226 3151 2824 2431 2396 2347 1838 1414 1469 1142 1074 1267 1356 1561 1463 1051
6 7 7 6 8 7 6 6 13 8 13 601 1830 2224 2514 2812 2765 2356 2607 2382 2148 2187 1530 1348 1368 1154 1020 999 1748 1535 1559 1109
10 8 9 9 8 7 5 7 14 13 27 625 785 2215 2726 2829 2626 2030 1948 2371 1964 1740 1447 1338 1232 1205 1049 1199 1613 1895 1683 1120

GFSFLT2_con_sbcape_120.txt.gz
CAPE
3165 2292 1851 1646 1906 2079 2147 2182 2212 2222 2322 2443 2588 2511 2376 2237 2290 2377 2504 2533 2406 1924 1578 1467 1451 1386 1246 1108 1098 936 775 826
3728 2950 2310 2053 1917 1624 1848 2017 2130 2236 2253 2346 2422 2326 2239 2178 2213 2314 2388 2347 2202 1772 1449 1389 1381 1230 1056 952 1010 803 749 703
3979 3207 2794 2351 1964 1754 1471 1741 1951 2106 2202 2206 1994 2486 2329 2160 2281 2226 2344 2024 1943 1671 1366 1296 1218 1023 866 784 885 1034 843 507
3457 3317 2921 2966 2182 2085 1851 1890 2045 2318 2468 2355 2617 2716 2676 2480 2307 1942 2127 1801 1680 1538 1308 1192 1039 1130 774 610 1012 1123 954 582
3200 3025 2537 3096 2860 2552 1963 1946 1814 2124 2392 2668 2704 2694 2696 2118 2203 1918 1996 1580 1732 1393 1126 1215 1297 1321 1262 1150 1135 1115 944 693
2959 2967 2496 2415 3066 2921 2466 2239 2116 2087 2155 2549 2424 2572 2583 2096 2362 2321 2338 2043 2247 1917 1601 1391 1358 1283 1308 1130 989 890 1072 847
1451 2908 2586 2479 2598 2226 2502 2359 2287 2429 2425 2523 2614 2334 2538 2595 2178 2489 2281 2366 2167 2172 1850 1523 1476 1482 1495 1401 1224 1286 1326 672
0 7 2507 2374 2409 2115 2588 2338 2575 2667 2647 2700 2752 2617 2551 2503 2408 2566 2399 2291 2340 2159 2150 1789 1623 1619 1597 1437 1251 1258 1362 1147
0 0 0 971 2199 2018 2179 2249 2242 2421 2438 3009 2835 2793 2814 2787 2588 2368 2424 2268 2391 2164 2290 2037 1847 1664 1627 1485 1476 1580 1408 1206
0 0 0 0 3 1752 1673 1879 2067 2274 2480 2416 2768 3002 3090 2618 2463 2715 2691 2437 2329 2213 2173 2249 1828 1792 1708 1582 1537 1514 1431 1254
0 0 0 0 0 0 55 1776 1742 2121 2259 2364 2801 2624 2576 2938 2586 2344 2582 2837 2442 2447 2296 2341 2124 1836 1694 1691 1645 1528 1379 1233
0 0 0 0 0 0 0 0 1977 2185 2224 2009 2377 2630 2313 2307 2799 2420 2206 2550 2741 2451 2395 2298 2263 1941 1772 1691 1707 1523 1395 1185
0 0 0 0 0 0 0 0 32 1985 2306 2323 2249 2359 2557 2345 2497 2601 2362 2032 2445 2638 2434 2239 2162 2032 1931 1621 1621 1486 1393 1208
0 0 0 0 0 0 0 0 0 0 1444 2304 2426 2326 2564 2673 2523 2431 2461 2057 2100 2763 2597 2254 2158 2062 1745 1477 1574 1543 1396 1196
0 0 0 0 0 0 0 0 0 0 0 432 2359 2433 2293 2869 2689 2380 2466 2370 2103 2263 2360 2313 1986 2025 1778 1368 1055 826 874 1033
0 0 0 0 1 1 2 0 0 0 0 0 1501 2287 2432 2612 2824 2792 2609 2634 2343 2174 2001 1886 2007 2045 1880 1563 1102 904 442 1022
0 0 0 0 3 6 4 5 0 0 0 0 1 651 2081 2292 2251 2538 2785 2436 2451 1939 1696 1655 1820 1676 1899 1566 1514 1312 1148 928
1 0 4 2 0 0 5 2 1 2 0 0 0 54 993 1928 1943 2237 2605 2443 1682 791 1517 1548 1577 1516 1426 1368 1384 1423 1211 1017
7 5 8 8 7 4 5 3 4 4 2 1 0 0 203 1185 1677 2019 2464 2572 2006 1956 1649 1480 1468 1360 1379 1168 1119 1155 1254 1092
9 11 12 9 11 12 10 9 9 4 0 6 3 0 6 676 1228 1412 1998 2174 2157 1957 1891 1632 1388 1237 1258 1135 1010 994 975 843

GFSFLT2_con_sbcape_123.txt.gz
CAPE
1603 1686 1748 1844 2152 2296 2253 2133 2091 2101 2206 2306 2405 2395 2301 2181 2233 2322 2411 2432 2280 1909 1560 1405 1352 1370 1351 1218 1100 950 519 349
1997 1657 1555 1439 1675 2033 2076 2062 2059 2060 2141 2203 2281 2210 2147 2117 2172 2284 2323 2287 2066 1678 1421 1364 1335 1268 1186 1056 955 855 695 557
2517 2005 1722 1526 1409 1556 1797 1953 2012 2028 2051 2099 1851 1973 1936 1960 2006 2171 2183 2139 1985 1590 1308 1292 1248 1154 1035 912 841 671 691 581
2830 2388 1951 1668 1752 1424 1370 1615 1690 1797 1984 1884 1877 1920 1835 1995 1936 2015 2122 1912 1834 1519 1248 1185 1133 862 767 793 706 773 516 677
2791 2652 2437 2299 1872 1308 1272 1304 1491 1766 1989 1820 2017 2028 1962 1925 1799 1635 1608 1519 1345 1277 1109 994 1043 1006 923 760 799 839 539 624
2745 2557 2378 1907 2284 1779 1268 1367 1250 1577 1862 2011 2076 2115 2093 1900 1729 1535 1585 1435 1344 1250 1005 979 1083 1066 1011 991 889 690 396 449
2157 2372 2229 2149 1983 1640 1947 1545 1351 1509 1577 1985 2103 2036 1817 1739 1664 1648 1726 1486 1636 1376 1194 1096 1121 1030 1023 869 857 610 729 691
0 0 123 1396 1629 1149 1250 1553 1779 1443 1537 1744 2081 1918 1730 1815 1276 1854 1793 1685 1639 1646 1404 1148 1035 1021 1126 1016 674 770 711 604
0 0 0 0 0 32 891 1014 1279 1244 1680 1741 1969 2056 1735 1962 1671 1767 1793 1713 1696 1584 1514 1262 1090 1005 1205 1056 1007 855 801 845
0 0 0 0 0 0 0 0 446 1050 1056 1551 2093 2093 1963 1708 1935 1655 1808 1669 1722 1608 1629 1480 1309 1281 1215 1264 1073 1045 1062 782
0 0 0 0 0 0 0 0 0 289 1008 1277 1431 1669 1919 1940 1956 1824 1586 1700 1699 1683 1644 1626 1484 1270 1290 1099 1045 1065 1018 925
0 0 0 0 0 0 0 0 0 0 307 976 1196 1412 1738 1762 1934 1610 1779 1758 1509 1581 1473 1563 1570 1361 1434 1456 1104 1010 960 840
0 0 0 0 0 0 0 0 0 0 0 1 1056 1184 1452 1570 1723 1773 1522 1729 1745 1447 1531 1570 1531 1333 1191 988 1024 1048 1027 822
0 0 0 0 0 0 0 0 0 0 0 0 0 162 1418 1600 1297 1480 1904 1687 1302 1519 1627 1644 1626 1388 1257 1104 1343 1265 997 849
0 0 0 0 0 0 0 0 0 0 0 0 0 0 497 1425 1392 1329 1644 1816 1363 1495 1755 1649 1558 1358 1106 907 873 972 821 683
0 0 0 0 0 0 0 0 0 0 0 0 0 0 0 62 1359 1542 1364 1639 1820 1200 1748 1731 1406 1379 1138 980 384 262 467 674
0 0 0 0 0 0 0 0 0 0 0 0 0 0 0 0 117 1218 1668 1468 1897 1434 1296 1619 1277 1325 1390 1257 828 397 408 346
0 0 0 0 0 0 0 0 1 1 0 0 0 0 0 0 0 224 1153 1632 1618 1729 1520 1300 1252 1003 1252 1302 1305 1013 672 493
0 1 3 1 1 0 0 2 4 6 3 4 1 0 0 0 0 0 645 1085 1559 1723 1370 887 472 737 938 1371 1269 1207 1003 714
2 5 11 4 2 2 2 3 5 5 5 9 7 4 2 2 0 0 93 773 1130 1395 1338 746 7 62 683 949 996 1141 908 887

GFSFLT2_con_sbcape_126.txt.gz
CAPE
1537 1551 1653 1924 2090 2196 2219 2049 1981 1956 2010 2081 2293 2224 2021 1932 2039 2203 2297 2244 2236 1921 1631 1387 1362 1352 1302 1200 1147 673 24 0
1480 1393 1488 1590 1790 2063 2094 1979 1896 1839 1879 1947 2045 2003 1922 1872 1940 2091 2200 2183 2110 1763 1451 1341 1318 1237 1108 1081 1084 906 637 500
1646 1399 1327 1260 1370 1595 1846 1959 1879 1760 1792 1828 1698 1878 1778 1728 1742 1898 2016 2042 1917 1542 1265 1225 1186 1095 949 851 926 692 540 483
2195 1751 1496 1240 1490 1424 1478 1665 1840 1839 1770 1710 1780 1738 1668 1755 1666 1672 1786 1728 1735 1402 1134 1080 1021 781 740 719 611 586 596 540
2486 2159 1594 1371 1451 1171 1110 1243 1460 1260 1539 1703 1494 1710 1559 1622 1512 1435 1422 1300 1404 1185 948 855 782 605 519 470 495 598 560 295
0 39 878 1461 1708 1241 1057 1148 1136 1334 1380 1367 1369 1677 1674 1654 1592 1455 1399 1332 1223 1169 983 874 780 697 597 533 502 531 486 362
0 0 0 0 0 187 1129 1048 1025 1143 1512 1705 1698 1730 1767 1643 1609 1336 1424 1302 1117 933 847 768 780 758 714 662 594 430 394 422
0 0 0 0 0 0 0 78 661 838 1168 1657 1670 1724 1770 1965 1621 1405 1378 1328 1190 1068 964 884 861 746 704 648 701 371 482 516
0 0 0 0 0 0 0 0 0 19 956 1277 1376 1365 1628 1655 1502 1530 1514 1360 1240 1168 1012 879 749 614 697 633 619 419 555 492
0 0 0 0 0 0 0 0 0 0 1 26 572 853 931 1108 1464 1337 1545 1358 1270 1219 1215 1050 836 625 652 682 605 495 421 559
0 0 0 0 0 0 0 0 0 0 0 0 0 192 924 580 1252 1341 1076 1270 1412 1264 1152 1136 1002 830 708 688 622 566 530 493
0 0 0 0 0 0 0 0 0 0 0 0 0 0 2 222 656 949 643 1221 1149 1360 1243 1151 1110 1031 982 767 519 540 545 478
0 0 0 0 0 0 0 0 0 0 0 0 0 0 0 0 368 1 310 1159 1219 1234 1248 1235 1230 1110 937 524 432 420 579 577
0 0 0 0 0 0 0 0 0 0 0 0 0 0 0 0 0 465 113 914 1052 842 1017 1163 1192 825 1036 820 843 667 416 593
0 0 0 0 0 0 0 0 0 0 0 0 0 0 0 0 0 0 200 17 71 822 1139 1042 875 988 808 525 575 818 593 325
0 0 0 0 0 0 0 0 0 0 0 0 0 0 0 0 0 0 0 291 380 722 1017 1088 938 848 866 759 103 118 628 384
0 0 0 0 0 0 0 0 0 0 0 0 0 0 0 0 0 0 0 0 373 646 931 808 939 902 818 606 292 35 54 88
0 0 0 0 0 0 0 0 0 0 0 0 0 0 0 0 0 0 2 0 0 328 613 921 837 826 910 791 602 347 190 122
0 4 2 1 1 0 1 1 1 1 1 0 0 0 0 0 0 0 1 0 0 0 413 581 721 628 384 468 456 560 373 187
4 7 7 1 0 0 0 5 6 6 5 5 4 2 1 1 0 0 0 0 0 0 26 496 471 541 341 1 19 7 251 267

GFSFLT2_con_sbcape_129.txt.gz
CAPE
1391 1411 1690 1954 2142 2178 2133 2046 1926 1877 1935 1971 2197 2114 1948 1885 2074 2254 2146 2139 2220 1911 1385 1241 1250 1272 1186 1019 822 333 0 6
1375 1281 1398 1546 1648 1877 1998 1988 1921 1875 1893 1903 2030 1994 1828 1809 1937 2168 2114 2093 1970 1788 1340 1119 1136 1140 1090 954 882 509 7 87
1331 1265 1305 1269 1376 1680 1860 1797 1766 1728 1803 1843 1765 1684 1662 1650 1700 1940 2089 2013 1916 1568 1260 1054 1019 994 933 928 752 534 388 338
1523 1283 1208 1170 1365 1465 1602 1678 1807 1719 1684 1647 1735 1725 1524 1670 1632 1673 1866 1830 1793 1509 1147 943 809 596 666 690 468 405 317 365
0 20 300 746 1136 1043 956 1146 1589 1461 1574 1667 1764 1530 1432 1451 1413 1334 1353 1322 1412 1220 845 653 556 424 365 410 349 311 289 277
0 0 0 0 0 0 468 1023 1110 1103 1292 1352 1454 1452 1360 1376 1421 1474 1449 1460 1402 1314 900 690 465 371 297 321 299 294 201 167
0 0 0 0 0 0 0 0 0 615 1201 1307 1303 1390 1455 1334 1354 1320 1477 1504 1290 1037 951 763 441 368 294 277 244 206 215 189
0 0 0 0 0 0 0 0 0 0 18 221 766 1037 1216 1451 1499 1571 1378 1535 1181 998 831 570 470 487 395 363 346 200 84 125
0 0 0 0 0 0 0 0 0 0 0 0 0 0 419 1120 1337 1614 1419 1568 1317 1032 857 713 435 460 418 374 455 278 123 151
0 0 0 0 0 0 0 0 0 0 0 0 0 0 0 0 927 1105 1296 1226 1231 1202 934 698 586 504 513 349 440 360 222 237
0 0 0 0 0 0 0 0 0 0 0 0 0 0 0 0 100 260 160 634 1064 1178 1158 944 773 579 475 328 303 397 260 318
0 0 0 0 0 0 0 0 0 0 0 0 0 0 1 0 1 2 3 81 678 982 1121 1057 965 742 580 481 302 346 209 298
0 0 0 0 0 0 0 0 0 0 0 0 0 0 0 0 2 1 0 62 179 435 949 1152 964 690 504 319 181 173 176 304
0 0 0 0 0 0 0 0 0 0 0 0 0 0 0 0 0 0 0 8 86 141 510 598 850 754 651 692 647 541 236 292
0 0 0 0 0 0 0 0 0 0 0 0 0 0 0 0 0 0 0 1 17 4 131 540 444 778 685 368 348 474 579 283
0 0 0 0 0 0 0 0 0 0 0 0 0 0 0 0 0 0 0 1 1 20 64 44 147 388 535 467 298 188 399 275
0 1 0 0 0 0 0 0 0 0 0 0 0 0 0 0 0 3 0 2 5 11 13 12 23 225 507 352 469 215 65 131
0 4 0 1 0 1 0 0 0 1 1 1 0 0 0 0 0 0 4 7 7 13 11 91 122 232 396 366 363 307 120 70
1 3 2 2 0 0 0 1 3 8 6 5 4 4 3 0 0 2 1 0 0 0 0 6 99 346 411 356 371 376 208 117
1 4 6 5 9 8 8 12 18 16 13 12 5 4 3 1 1 2 0 3 0 0 0 0 0 119 311 379 319 345 64 81

GFSFLT2_con_sbcape_135.txt.gz
CAPE
2016 1988 1829 1591 1563 1791 1929 1558 1736 1807 1786 1885 2180 2241 2198 2067 2110 2314 2359 2491 2441 2315 1872 1492 1265 1209 1079 1037 993 521 1711 1634
2 432 1674 1932 1912 1242 1406 1649 1263 1059 1695 1798 1836 1829 1880 1855 1901 2044 1961 2157 2156 2091 1634 1276 1177 1127 1003 898 843 85 1286 1744
0 0 0 0 659 1269 1457 1573 1322 1546 1731 1531 1824 2336 2391 2068 1949 1878 1944 1808 1926 1906 1520 1099 1004 968 938 691 629 1549 885 851
0 0 0 0 0 0 24 1097 2046 2032 1338 1462 1929 1915 2045 2043 1650 1464 1589 1636 1644 1694 1501 1042 821 1450 1466 722 1375 1434 1447 699
0 0 0 0 0 0 0 0 4 496 1444 1415 1575 1837 2015 1906 2079 2156 2226 1371 2199 1638 1952 1949 1644 1605 1497 1543 1512 1580 1345 1124
0 0 0 0 0 0 0 0 0 4 7 3 907 1730 1734 1686 1670 1734 1812 1638 1757 2060 1847 2007 1855 1499 1494 1412 1412 1410 1359 1243
0 0 0 0 0 0 0 0 0 0 0 1 2 5 374 1335 1652 1744 1648 1611 1401 1252 1399 1460 1618 1472 1238 1148 1167 1159 1231 1267
0 0 0 0 0 0 0 0 0 0 0 0 2 4 3 0 14 966 1403 1554 1170 936 955 1173 1401 1512 1301 838 1129 1026 1047 1163
0 0 0 0 0 0 0 0 0 0 0 0 0 0 0 0 0 3 255 61 113 171 598 977 1259 1003 1119 983 1031 921 903 1005
0 0 0 0 0 0 0 0 0 0 0 0 0 0 0 4 2 1 2 9 0 0 0 3 347 605 974 837 803 835 834 1061
0 0 0 0 0 0 0 0 0 0 0 0 0 0 0 0 2 5 8 10 8 0 0 0 0 115 482 1016 1089 793 866 897
0 0 0 0 0 0 0 0 0 0 0 0 0 0 0 0 0 0 0 0 5 9 1 0 0 14 393 622 1049 922 824 768
0 0 0 0 0 0 0 0 0 0 0 0 0 0 0 0 0 0 0 0 0 1 7 12 7 10 214 871 977 929 620 329
0 0 0 0 0 0 0 0 0 0 0 0 1 1 0 0 0 0 0 0 0 0 2 80 118 323 677 372 474 747 645 440
0 0 0 0 0 0 0 0 0 0 0 1 1 4 4 4 3 1 2 4 1 2 2 4 32 217 275 93 102 63 503 550
0 0 0 0 1 1 2 1 0 1 3 3 5 5 8 7 7 6 3 4 3 0 0 1 4 21 551 236 25 260 192 103
0 2 1 3 6 7 7 7 6 6 9 6 7 6 5 4 4 15 12 11 11 9 8 12 13 4 83 509 274 40 99 12
0 1 2 3 5 4 7 9 12 22 18 14 15 21 23 14 12 7 16 14 7 13 14 9 6 10 2 63 84 377 54 10
0 1 3 3 4 5 5 3 8 12 22 27 19 27 24 12 22 24 22 12 9 13 8 8 9 13 11 4 46 209 154 71
0 2 2 3 5 4 3 7 11 28 27 33 28 24 28 22 24 19 22 25 23 23 17 13 9 26 10 2 1 58 64 99

GFSFLT2_con_sbcape_138.txt.gz
CAPE
0 0 0 335 1272 1005 1221 1364 1311 1493 1779 1830 2120 2080 2050 2076 2143 2069 2194 2358 2561 2374 2341 1874 1368 1263 1192 1123 878 928 1598 1551
0 0 0 0 0 0 994 1161 1185 1204 1220 1532 1646 1670 1745 1650 1844 1876 2000 2155 2266 2252 2138 1788 1381 1219 1044 964 824 762 1849 1614
0 0 0 0 0 0 0 295 1408 1396 1557 1413 1555 2295 2139 2095 1871 1682 1746 1875 1931 2014 2017 1584 1252 1059 1020 792 564 1809 1519 1510
0 0 0 0 0 0 0 1 87 401 484 1792 2311 2446 2554 2146 1676 1599 1240 1330 1510 1578 1678 1338 1010 1686 1516 765 1561 1539 1557 1253
0 0 0 0 0 0 0 0 0 0 0 1 297 2072 2364 2413 2461 2606 2244 1104 1764 1543 1785 1976 1726 1675 1383 1871 1507 1472 1450 1372
0 0 0 0 0 0 0 0 0 0 0 0 1 4 862 1572 2150 1932 2161 2288 2067 2421 2505 2151 1771 1745 1650 1668 1707 1516 1455 1263
0 0 0 0 0 0 0 0 0 0 0 0 0 0 0 0 160 1299 1951 1958 2033 1931 1840 1957 1888 1739 1673 1769 1736 1743 1498 1140
0 0 0 0 0 0 0 0 0 0 0 0 0 0 0 0 0 365 846 1529 1466 1627 1174 1258 1588 1629 1695 1608 1782 1482 1488 1395
0 0 0 0 0 0 0 0 0 0 0 0 0 0 0 0 0 4 262 192 664 18 0 5 533 1041 677 1667 1558 1616 1413 1420
0 0 0 0 0 0 0 0 0 0 0 0 0 0 0 0 0 0 0 3 42 103 0 0 18 15 0 6 1269 1275 1310 1334
0 0 0 0 0 0 0 0 0 0 0 0 0 0 0 0 0 0 0 0 0 44 162 1 2 0 0 26 24 856 1449 1392
0 0 0 0 0 0 0 0 0 0 0 0 0 0 0 0 0 0 0 0 0 0 12 101 86 7 5 4 0 2 988 1192
0 0 0 0 0 0 0 0 0 0 0 0 0 0 0 0 0 0 0 0 0 0 0 4 55 127 9 25 197 475 1187 1163
0 0 0 0 0 0 0 0 0 0 0 0 1 1 4 3 2 1 0 0 0 2 2 0 0 160 198 435 321 303 862 1205
0 0 0 0 0 0 0 0 0 0 0 0 1 5 7 11 12 10 8 7 3 3 5 4 0 49 524 351 219 96 289 734
0 0 0 0 1 0 3 1 0 1 3 3 7 11 10 13 10 9 11 15 15 9 4 7 3 0 83 483 970 557 223 457
0 0 0 0 1 2 4 5 8 8 10 12 12 12 11 7 13 10 5 27 7 9 15 23 16 5 1 48 576 893 977 686
0 0 0 0 1 2 7 9 12 12 13 12 10 14 14 16 20 35 27 26 26 26 9 16 17 23 6 20 54 54 509 664
0 0 0 0 2 4 6 8 9 15 19 19 27 21 16 24 22 27 21 16 25 32 38 29 14 21 18 27 34 17 10 610
0 0 0 1 4 5 6 9 12 20 19 22 25 25 23 24 28 23 18 16 22 23 27 25 20 23 13 28 24 22 15 5

GFSFLT2_con_sbcape_141.txt.gz
CAPE
0 0 0 0 0 0 252 946 1283 1476 1551 1864 1987 2118 2052 2089 2214 2381 2417 2303 2429 2503 2299 2186 1619 1360 1263 1208 1126 1041 1368 1293
0 0 0 0 0 0 13 198 317 1310 1494 1450 1309 1641 1792 1758 1894 1981 2174 2215 2246 2321 2186 2033 1666 1304 1133 1083 958 792 1198 1608
0 0 0 0 0 0 0 88 231 371 467 128 1512 2113 2110 2115 1796 1554 1758 1899 1956 2063 2019 1925 1661 1264 1119 989 873 1460 1334 1095
0 0 0 0 0 0 0 0 3 130 7 7 476 1556 2333 1733 1387 1298 1323 1361 1512 1554 1723 1578 1392 1659 1576 951 1455 1347 1300 1213
0 0 0 0 0 0 0 0 0 0 0 0 0 309 900 2177 2460 2641 2526 1193 2004 1313 1573 1786 1639 1442 1155 1840 1584 1451 1465 1150
0 0 0 0 0 0 0 0 0 0 0 0 0 0 0 193 755 1631 1937 2386 1758 2171 2202 2300 2035 1651 1815 1770 1882 1627 1311 1323
0 0 0 0 0 0 0 0 0 0 0 0 0 0 0 0 0 342 1236 1595 1393 1973 1878 2045 1898 1358 1453 2002 1986 1628 1495 1643
0 0 0 0 0 0 0 0 0 0 0 0 0 0 0 0 0 0 169 621 960 1033 289 860 1399 1377 1745 1684 1249 1300 1810 1508
0 0 0 0 0 0 0 0 0 0 0 0 0 0 0 0 0 0 0 4 180 630 879 211 0 10 54 49 216 13 259 1253
0 0 0 0 0 0 0 0 0 0 0 0 0 0 0 0 0 0 0 0 0 1 378 129 0 0 70 24 17 17 0 230
0 0 0 0 0 0 0 0 0 0 0 0 0 0 0 0 0 0 0 0 0 0 0 408 147 3 0 0 45 0 8 193
0 0 0 0 0 0 0 0 0 0 0 0 0 0 0 0 0 0 0 0 0 0 0 0 57 155 9 2 30 30 0 576
0 0 0 0 0 0 0 0 0 0 0 0 0 0 1 4 2 1 0 0 0 0 0 0 0 31 171 68 78 92 193 215
0 0 0 0 0 0 0 0 0 0 0 0 0 1 5 5 8 9 8 7 5 3 2 4 4 0 9 190 67 140 189 204
0 0 0 0 0 0 0 0 0 0 0 0 1 5 8 9 9 10 15 25 17 15 9 8 6 5 41 113 135 117 229 607
0 0 0 0 0 0 1 0 0 2 4 6 7 8 9 13 14 21 21 13 10 8 5 20 30 11 5 28 429 506 446 322
0 0 0 0 0 2 0 2 4 5 8 12 11 7 12 6 26 30 30 29 29 24 17 7 6 4 10 5 76 221 544 484
0 0 0 0 0 1 3 5 6 7 12 16 22 24 26 21 16 26 27 23 20 28 27 21 11 7 6 12 20 46 53 365
0 0 0 0 1 2 4 5 6 8 11 15 24 30 30 20 26 31 28 24 31 36 21 23 28 27 19 20 18 9 12 15
0 0 0 0 2 5 5 5 6 9 14 21 22 27 32 23 30 26 23 19 21 26 21 26 16 26 29 19 19 18 18 9

GFSFLT2_con_sbcape_147.txt.gz
CAPE
0 0 0 0 0 0 46 340 229 183 86 59 498 1032 1273 1398 1570 1622 1679 1808 1801 1912 2205 2175 2157 1924 1257 951 961 1046 1059 821
0 0 0 0 0 0 0 0 8 0 0 15 0 146 853 855 1020 1361 1446 1535 1627 1484 1710 1943 1916 1841 1471 970 864 885 830 784
0 0 0 0 0 0 0 0 0 0 0 0 0 0 63 177 605 755 874 1113 1191 1379 1456 1445 1486 1593 1526 1098 788 681 629 690
0 0 0 0 0 0 0 0 0 0 0 0 0 0 0 0 0 203 315 751 813 878 976 1122 825 1214 1363 1007 806 648 715 719
0 0 0 0 0 0 0 0 0 0 0 0 0 0 0 0 0 0 0 55 746 877 946 848 1020 933 1191 998 869 751 641 646
0 0 0 0 0 0 0 0 0 0 0 0 0 0 0 0 0 0 0 0 0 100 754 680 481 511 794 1047 774 546 548 569
0 0 0 0 0 0 0 0 0 0 0 0 0 0 0 0 0 0 0 0 0 0 0 179 80 34 183 168 556 481 486 527
0 0 0 0 0 0 0 0 0 0 0 0 0 0 0 0 0 0 0 0 0 0 0 0 0 58 73 119 280 50 3 200
0 0 0 0 0 0 0 0 0 0 0 0 0 0 0 0 0 0 0 0 0 0 0 0 0 0 1 42 31 84 193 110
0 0 0 0 0 0 0 0 0 0 0 0 0 0 0 0 0 0 0 0 0 0 0 0 0 0 0 1 3 0 29 8
0 0 0 0 0 0 0 0 0 0 0 0 0 0 0 0 0 0 0 0 0 0 0 0 0 0 0 0 1 0 0 10
0 0 0 0 0 0 0 0 0 0 0 0 0 0 0 0 0 0 0 0 0 0 0 0 0 0 0 0 0 0 0 0
0 0 0 0 0 0 0 0 0 0 0 0 0 0 0 0 0 0 0 0 0 0 0 0 0 0 0 0 0 0 0 13
0 0 0 0 0 0 0 0 0 0 0 0 0 0 0 0 0 0 1 7 14 12 0 0 0 0 7 0 0 0 0 0
0 0 0 0 0 0 0 0 0 0 0 0 0 0 0 0 0 10 8 10 12 10 12 7 1 3 0 10 16 3 0 0
0 0 0 0 0 0 0 0 0 0 0 0 0 0 0 0 11 12 6 9 11 13 17 22 16 18 2 0 1 4 10 0
0 0 0 0 0 0 0 0 0 0 0 0 0 0 0 5 8 7 7 13 15 19 17 20 27 30 24 14 6 5 0 17
0 0 0 0 0 0 0 0 0 0 0 0 0 1 2 1 7 7 12 13 17 17 17 18 17 16 32 30 18 18 5 9
0 0 0 0 0 0 0 0 0 0 2 2 7 6 1 5 7 4 10 14 19 21 16 13 16 15 14 17 21 31 12 9
0 0 0 0 0 0 0 0 1 2 2 5 8 8 11 12 17 3 6 21 16 22 30 9 13 11 15 15 24 27 35 17

GFSFLT2_con_sbcape_150.txt.gz
CAPE
0 0 0 0 0 0 0 4 0 0 0 0 0 96 268 685 798 1025 1346 1445 1525 1689 1712 2022 1993 2153 1993 1360 847 873 887 874
0 0 0 0 0 0 0 0 0 0 0 0 0 0 0 0 0 18 26 431 1065 1409 1344 1339 1610 1767 1905 1675 1118 719 639 699
0 0 0 0 0 0 0 0 0 0 0 0 0 0 0 0 0 0 0 0 54 629 882 919 830 1105 1393 1583 1158 565 479 493
0 0 0 0 0 0 0 0 0 0 0 0 0 0 0 0 0 0 0 0 0 0 137 666 674 775 946 1142 1073 768 530 580
0 0 0 0 0 0 0 0 0 0 0 0 0 0 0 0 0 0 0 0 0 0 0 13 448 371 610 898 966 979 786 603
0 0 0 0 0 0 0 0 0 0 0 0 0 0 0 0 0 0 0 0 0 0 0 0 0 0 84 83 762 767 597 501
0 0 0 0 0 0 0 0 0 0 0 0 0 0 0 0 0 0 0 0 0 0 0 0 0 0 0 38 138 470 854 632
0 0 0 0 0 0 0 0 0 0 0 0 0 0 0 0 0 0 0 0 0 0 0 0 0 0 0 0 1 62 158 318
0 0 0 0 0 0 0 0 0 0 0 0 0 0 0 0 0 0 0 0 0 0 0 0 0 0 0 0 0 2 5 2
0 0 0 0 0 0 0 0 0 0 0 0 0 0 0 0 0 0 0 0 0 0 0 0 0 0 0 0 0 0 3 114
0 0 0 0 0 0 0 0 0 0 0 0 0 0 0 0 0 0 0 0 0 0 0 0 0 0 0 0 0 0 0 14
0 0 0 0 0 0 0 0 0 0 0 0 0 0 0 0 0 0 0 0 0 0 0 0 0 0 0 0 0 0 0 0
0 0 0 0 0 0 0 0 0 0 0 0 0 0 0 0 0 0 3 5 7 8 2 0 0 0 1 0 0 0 0 0
0 0 0 0 0 0 0 0 0 0 0 0 0 0 0 0 0 1 3 2 5 12 11 17 7 2 0 20 0 0 0 0
0 0 0 0 0 0 0 0 0 0 0 0 0 0 0 0 1 0 0 3 6 10 14 8 20 13 9 19 18 13 0 0
0 0 0 0 0 0 0 0 0 0 0 0 0 0 0 0 4 0 1 7 12 14 16 16 18 15 19 3 6 12 26 0
0 0 0 0 0 0 0 0 0 0 0 0 0 0 0 2 7 0 1 17 13 17 13 13 16 19 12 20 14 11 16 36
0 0 0 0 0 0 0 0 0 0 0 0 0 0 1 8 10 1 3 3 17 15 12 14 13 15 20 13 16 21 13 10
0 0 0 0 0 0 0 0 0 0 0 0 0 1 7 10 5 4 6 11 16 18 25 20 17 15 16 18 19 21 18 13
0 0 0 0 0 0 0 0 0 0 0 0 0 7 11 11 8 4 4 14 6 15 17 13 22 6 15 21 16 16 22 26

GFSFLT2_con_sbcape_153.txt.gz
CAPE
0 0 0 0 0 0 0 0 0 0 0 0 0 0 0 0 0 0 0 0 19 599 1351 1416 1643 1628 1805 1612 1154 738 653 613
0 0 0 0 0 0 0 0 0 0 0 0 0 0 0 0 0 0 0 0 0 0 0 634 1053 1164 1295 1305 1252 947 589 421
0 0 0 0 0 0 0 0 0 0 0 0 0 0 0 0 0 0 0 0 0 0 0 0 359 647 765 954 1008 585 537 410
0 0 0 0 0 0 0 0 0 0 0 0 0 0 0 0 0 0 0 0 0 0 0 0 0 1 121 554 729 719 473 566
0 0 0 0 0 0 0 0 0 0 0 0 0 0 0 0 0 0 0 0 0 0 0 0 0 0 0 1 121 840 750 651
0 0 0 0 0 0 0 0 0 0 0 0 0 0 0 0 0 0 0 0 0 0 0 0 0 0 0 0 1 43 548 771
0 0 0 0 0 0 0 0 0 0 0 0 0 0 0 0 0 0 0 0 0 0 0 0 0 0 0 0 0 0 5 391
0 0 0 0 0 0 0 0 0 0 0 0 0 0 0 0 0 0 0 0 0 0 0 0 0 0 0 0 0 0 0 3
0 0 0 0 0 0 0 0 0 0 0 0 0 0 0 0 0 0 0 0 0 0 0 0 0 0 0 0 0 0 0 0
0 0 0 0 0 0 0 0 0 0 0 0 0 0 0 0 0 0 0 0 0 0 0 0 0 0 0 0 0 0 0 0
0 0 0 0 0 0 0 0 0 0 0 0 0 0 0 0 0 0 0 0 0 0 0 0 0 0 0 0 0 0 0 0
0 0 0 0 0 0 0 0 0 0 0 0 0 0 0 0 0 0 0 2 0 0 1 0 0 0 4 2 0 0 0 0
0 0 0 0 0 0 0 0 0 0 0 0 0 0 0 0 0 0 0 1 2 3 2 0 0 0 3 0 0 0 0 0
0 0 0 0 0 0 0 0 0 0 0 0 0 0 0 0 0 0 0 2 0 2 4 10 10 6 14 6 0 0 0 0
0 0 0 0 0 0 0 0 0 0 0 0 0 0 0 0 0 1 0 1 15 15 10 20 16 7 1 16 20 14 2 0
0 0 0 0 0 0 0 0 0 0 0 0 0 0 0 0 0 1 0 1 9 10 12 12 15 14 12 7 14 15 22 2
0 0 0 0 0 0 0 0 0 0 0 0 0 0 0 0 0 3 6 5 9 15 11 6 9 14 16 17 11 19 12 29
0 0 0 0 0 0 0 0 0 0 0 0 0 0 3 2 3 1 0 6 8 8 19 14 20 21 15 20 20 23 23 31
0 0 0 0 0 0 0 0 0 0 0 0 1 3 4 5 3 0 5 9 4 7 13 10 10 10 17 17 22 24 29 13
0 0 0 0 0 0 0 0 0 0 0 0 0 3 0 0 2 1 3 2 3 1 8 5 8 6 18 17 15 14 17 20

GFSFLT2_con_sbcape_156.txt.gz
CAPE
0 0 0 0 0 0 0 0 0 0 0 0 0 0 0 0 0 0 0 0 0 0 0 0 244 944 1213 1328 1419 1161 577 478
0 0 0 0 0 0 0 0 0 0 0 0 0 0 0 0 0 0 0 0 0 0 0 0 0 0 130 449 780 897 765 355
0 0 0 0 0 0 0 0 0 0 0 0 0 0 0 0 0 0 0 0 0 0 0 0 0 0 0 0 186 568 567 532
0 0 0 0 0 0 0 0 0 0 0 0 0 0 0 0 0 0 0 0 0 0 0 0 0 0 0 0 0 55 601 608
0 0 0 0 0 0 0 0 0 0 0 0 0 0 0 0 0 0 0 0 0 0 0 0 0 0 0 0 0 0 113 648
0 0 0 0 0 0 0 0 0 0 0 0 0 0 0 0 0 0 0 0 0 0 0 0 0 0 0 0 0 0 0 4
0 0 0 0 0 0 0 0 0 0 0 0 0 0 0 0 0 0 0 0 0 0 0 0 0 0 0 0 0 0 0 1
0 0 0 0 0 0 0 0 0 0 0 0 0 0 0 0 0 0 0 0 0 0 0 0 0 0 0 0 0 0 0 0
0 0 0 0 0 0 0 0 0 0 0 0 0 0 0 0 0 0 0 0 0 0 0 0 0 0 0 0 0 0 0 0
0 0 0 0 0 0 0 0 0 0 0 0 0 0 0 0 0 0 0 0 0 0 0 0 0 0 0 0 0 0 0 0
0 0 0 0 0 0 0 0 0 0 0 0 0 0 0 0 0 0 0 0 0 0 0 2 1 0 0 0 0 0 0 0
0 0 0 0 0 0 0 0 0 0 0 0 0 0 0 0 0 0 0 0 0 0 0 0 0 0 3 2 0 0 0 0
0 0 0 0 0 0 0 0 0 0 0 0 0 0 0 0 0 0 0 0 0 0 3 4 2 5 7 1 0 0 0 0
0 0 0 0 0 0 0 0 0 0 0 0 0 0 0 0 0 2 0 1 1 5 5 6 17 2 9 7 4 0 0 0
0 0 0 0 0 0 0 0 0 0 0 0 0 0 0 0 0 1 1 2 4 2 8 12 13 3 6 21 10 9 6 0
0 0 0 0 0 0 0 0 0 0 0 0 0 0 0 0 0 0 3 1 5 11 8 12 12 13 7 15 11 20 30 10
0 0 0 0 0 0 0 0 0 0 0 0 0 0 0 0 0 1 3 3 4 5 8 12 12 15 16 23 21 15 17 34
0 0 0 0 0 0 0 0 0 0 0 0 0 0 0 0 0 2 4 5 3 4 11 7 11 8 13 17 25 33 18 23
0 0 0 0 0 0 0 0 0 0 0 0 0 0 0 0 0 0 0 0 2 1 6 5 10 8 5 14 16 22 30 26
0 0 0 0 0 0 0 0 0 0 0 0 0 0 0 0 0 0 0 0 1 1 6 4 4 1 1 9 12 26 18 17